Time,TemperatureF,DewpointF,PressureIn,WindDirection,WindDirectionDegrees,WindSpeedMPH,WindSpeedGustMPH,Humidity,HourlyPrecipIn,Conditions,Clouds,dailyrainin,SoftwareType,DateUTC
2013-03-04 00:00:00,30.4,17.0,29.70,NW,320,6.0,20.0,57,0.00,,,0.00,VWS V14.01,2013-03-04 05:00:00,
2013-03-04 00:01:00,30.4,17.0,29.70,NW,317,13.0,20.0,57,0.00,,,0.00,VWS V14.01,2013-03-04 05:01:00,
2013-03-04 00:03:00,30.4,16.6,29.70,NW,323,10.0,20.0,56,0.00,,,0.00,VWS V14.01,2013-03-04 05:03:00,
2013-03-04 00:06:00,30.4,16.6,29.70,NW,326,3.0,16.0,56,0.00,,,0.00,VWS V14.01,2013-03-04 05:06:00,
2013-03-04 00:11:00,30.3,16.5,29.70,NNW,327,7.0,16.0,56,0.00,,,0.00,VWS V14.01,2013-03-04 05:11:00,
2013-03-04 00:13:00,30.3,16.5,29.70,NNW,347,10.0,17.0,56,0.00,,,0.00,VWS V14.01,2013-03-04 05:13:00,
2013-03-04 00:14:00,30.3,16.5,29.70,NW,320,8.0,17.0,56,0.00,,,0.00,VWS V14.01,2013-03-04 05:14:00,
2013-03-04 00:16:00,30.1,16.3,29.70,NNW,342,14.0,19.0,56,0.00,,,0.00,VWS V14.01,2013-03-04 05:16:00,
2013-03-04 00:18:00,30.1,16.3,29.70,NW,308,10.0,19.0,56,0.00,,,0.00,VWS V14.01,2013-03-04 05:18:00,
2013-03-04 00:19:00,30.1,16.3,29.70,NW,310,9.0,19.0,56,0.00,,,0.00,VWS V14.01,2013-03-04 05:19:00,
2013-03-04 00:21:00,30.1,15.9,29.70,NNW,329,7.0,25.0,55,0.00,,,0.00,VWS V14.01,2013-03-04 05:21:00,
2013-03-04 00:23:00,30.1,15.9,29.70,NW,325,15.0,25.0,55,0.00,,,0.00,VWS V14.01,2013-03-04 05:23:00,
2013-03-04 00:25:00,30.1,15.9,29.70,NW,317,9.0,25.0,55,0.00,,,0.00,VWS V14.01,2013-03-04 05:25:00,
2013-03-04 00:27:00,30.1,15.9,29.70,WNW,297,4.0,25.0,55,0.00,,,0.00,VWS V14.01,2013-03-04 05:27:00,
2013-03-04 00:30:00,30.0,15.8,29.70,WNW,290,9.0,25.0,55,0.00,,,0.00,VWS V14.01,2013-03-04 05:30:00,
2013-03-04 00:31:00,30.0,15.8,29.70,North,349,11.0,25.0,55,0.00,,,0.00,VWS V14.01,2013-03-04 05:31:00,
2013-03-04 00:32:00,30.0,15.8,29.70,NW,311,11.0,25.0,55,0.00,,,0.00,VWS V14.01,2013-03-04 05:32:00,
2013-03-04 00:34:00,30.0,15.8,29.70,NW,319,9.0,13.0,55,0.00,,,0.00,VWS V14.01,2013-03-04 05:34:00,
2013-03-04 00:35:00,30.0,15.8,29.70,NW,319,11.0,13.0,55,0.00,,,0.00,VWS V14.01,2013-03-04 05:35:00,
2013-03-04 00:36:00,30.0,15.8,29.70,NW,325,13.0,20.0,55,0.00,,,0.00,VWS V14.01,2013-03-04 05:36:00,
2013-03-04 00:38:00,29.8,15.6,29.70,WNW,303,5.0,20.0,55,0.00,,,0.00,VWS V14.01,2013-03-04 05:38:00,
2013-03-04 00:42:00,29.8,15.6,29.70,WNW,303,5.0,20.0,55,0.00,,,0.00,VWS V14.01,2013-03-04 05:42:00,
2013-03-04 00:43:00,29.8,15.6,29.70,West,278,8.0,20.0,55,0.00,,,0.00,VWS V14.01,2013-03-04 05:43:00,
2013-03-04 00:47:00,29.7,15.9,29.70,WNW,294,8.0,20.0,56,0.00,,,0.00,VWS V14.01,2013-03-04 05:47:00,
2013-03-04 00:52:00,29.7,15.9,29.70,WNW,299,10.0,20.0,56,0.00,,,0.00,VWS V14.01,2013-03-04 05:52:00,
2013-03-04 00:54:00,29.7,15.9,29.70,WNW,287,4.0,20.0,56,0.00,,,0.00,VWS V14.01,2013-03-04 05:54:00,
2013-03-04 00:56:00,29.7,15.9,29.70,WNW,284,3.0,20.0,56,0.00,,,0.00,VWS V14.01,2013-03-04 05:56:00,
2013-03-04 01:00:00,29.5,15.8,29.70,WNW,298,15.0,20.0,56,0.00,,,0.00,VWS V14.01,2013-03-04 06:00:00,
2013-03-04 01:02:00,29.5,15.8,29.70,NW,319,12.0,20.0,56,0.00,,,0.00,VWS V14.01,2013-03-04 06:02:00,
2013-03-04 01:03:00,29.5,15.8,29.70,WNW,302,7.0,7.0,56,0.00,,,0.00,VWS V14.01,2013-03-04 06:03:00,
2013-03-04 01:04:00,29.5,15.8,29.70,NW,323,3.0,8.0,56,0.00,,,0.00,VWS V14.01,2013-03-04 06:04:00,
2013-03-04 01:07:00,29.5,15.8,29.70,North,5,9.0,13.0,56,0.00,,,0.00,VWS V14.01,2013-03-04 06:07:00,
2013-03-04 01:10:00,29.4,15.7,29.70,North,355,11.0,13.0,56,0.00,,,0.00,VWS V14.01,2013-03-04 06:10:00,
2013-03-04 01:13:00,29.4,15.7,29.70,NW,318,8.0,15.0,56,0.00,,,0.00,VWS V14.01,2013-03-04 06:13:00,
2013-03-04 01:18:00,29.4,15.2,29.71,NW,305,10.0,17.0,55,0.00,,,0.00,VWS V14.01,2013-03-04 06:18:00,
2013-03-04 01:19:00,29.4,15.2,29.71,WNW,284,3.0,17.0,55,0.00,,,0.00,VWS V14.01,2013-03-04 06:19:00,
2013-03-04 01:25:00,29.4,15.2,29.71,NNW,336,8.0,18.0,55,0.00,,,0.00,VWS V14.01,2013-03-04 06:25:00,
2013-03-04 01:26:00,29.4,15.2,29.71,NW,324,16.0,18.0,55,0.00,,,0.00,VWS V14.01,2013-03-04 06:26:00,
2013-03-04 01:28:00,29.4,14.8,29.71,NNW,328,6.0,22.0,54,0.00,,,0.00,VWS V14.01,2013-03-04 06:28:00,
2013-03-04 01:29:00,29.4,14.8,29.71,NW,315,10.0,22.0,54,0.00,,,0.00,VWS V14.01,2013-03-04 06:29:00,
2013-03-04 01:32:00,29.3,14.7,29.71,NW,314,8.0,22.0,54,0.00,,,0.00,VWS V14.01,2013-03-04 06:32:00,
2013-03-04 01:33:00,29.3,14.7,29.70,NW,325,10.0,22.0,54,0.00,,,0.00,VWS V14.01,2013-03-04 06:33:00,
2013-03-04 01:35:00,29.3,14.7,29.70,NW,310,4.0,11.0,54,0.00,,,0.00,VWS V14.01,2013-03-04 06:35:00,
2013-03-04 01:39:00,29.3,14.7,29.70,NNW,335,11.0,22.0,54,0.00,,,0.00,VWS V14.01,2013-03-04 06:39:00,
2013-03-04 01:40:00,29.3,14.7,29.70,NNW,338,5.0,22.0,54,0.00,,,0.00,VWS V14.01,2013-03-04 06:40:00,
2013-03-04 01:45:00,29.3,14.7,29.70,NW,304,10.0,22.0,54,0.00,,,0.00,VWS V14.01,2013-03-04 06:45:00,
2013-03-04 01:47:00,29.3,14.7,29.70,NW,317,10.0,22.0,54,0.00,,,0.00,VWS V14.01,2013-03-04 06:47:00,
2013-03-04 01:51:00,29.3,14.7,29.70,WNW,294,14.0,22.0,54,0.00,,,0.00,VWS V14.01,2013-03-04 06:51:00,
2013-03-04 01:52:00,29.3,14.7,29.70,West,281,9.0,22.0,54,0.00,,,0.00,VWS V14.01,2013-03-04 06:52:00,
2013-03-04 01:53:00,29.1,14.5,29.70,NW,317,12.0,22.0,54,0.00,,,0.00,VWS V14.01,2013-03-04 06:53:00,
2013-03-04 01:54:00,29.1,14.5,29.70,NW,304,13.0,22.0,54,0.00,,,0.00,VWS V14.01,2013-03-04 06:54:00,
2013-03-04 01:58:00,29.1,14.5,29.70,WNW,298,10.0,22.0,54,0.00,,,0.00,VWS V14.01,2013-03-04 06:58:00,
2013-03-04 01:59:00,29.1,14.5,29.70,NNW,327,11.0,22.0,54,0.00,,,0.00,VWS V14.01,2013-03-04 06:59:00,
2013-03-04 02:02:00,29.1,14.5,29.70,NW,311,13.0,22.0,54,0.00,,,0.00,VWS V14.01,2013-03-04 07:02:00,
2013-03-04 02:05:00,29.1,14.5,29.70,West,273,7.0,14.0,54,0.00,,,0.00,VWS V14.01,2013-03-04 07:05:00,
2013-03-04 02:10:00,29.1,14.1,29.70,WNW,282,17.0,23.0,53,0.00,,,0.00,VWS V14.01,2013-03-04 07:10:00,
2013-03-04 02:11:00,29.1,14.5,29.70,West,280,14.0,23.0,54,0.00,,,0.00,VWS V14.01,2013-03-04 07:11:00,
2013-03-04 02:12:00,29.1,14.1,29.70,WNW,283,14.0,23.0,53,0.00,,,0.00,VWS V14.01,2013-03-04 07:12:00,
2013-03-04 02:13:00,29.1,14.1,29.70,WNW,292,7.0,23.0,53,0.00,,,0.00,VWS V14.01,2013-03-04 07:13:00,
2013-03-04 02:17:00,29.1,14.5,29.70,WNW,297,8.0,23.0,54,0.00,,,0.00,VWS V14.01,2013-03-04 07:17:00,
2013-03-04 02:19:00,29.0,14.4,29.71,WNW,302,4.0,23.0,54,0.00,,,0.00,VWS V14.01,2013-03-04 07:19:00,
2013-03-04 02:23:00,29.0,14.4,29.71,NW,308,4.0,23.0,54,0.00,,,0.00,VWS V14.01,2013-03-04 07:23:00,
2013-03-04 02:24:00,29.0,14.4,29.71,NW,320,9.0,23.0,54,0.00,,,0.00,VWS V14.01,2013-03-04 07:24:00,
2013-03-04 02:26:00,29.0,14.4,29.71,NNW,332,5.0,23.0,54,0.00,,,0.00,VWS V14.01,2013-03-04 07:26:00,
2013-03-04 02:27:00,29.0,14.9,29.71,WNW,286,4.0,23.0,55,0.00,,,0.00,VWS V14.01,2013-03-04 07:27:00,
2013-03-04 02:32:00,28.8,14.7,29.71,NW,320,2.0,23.0,55,0.00,,,0.00,VWS V14.01,2013-03-04 07:32:00,
2013-03-04 02:33:00,28.8,14.7,29.71,NW,317,12.0,23.0,55,0.00,,,0.00,VWS V14.01,2013-03-04 07:33:00,
2013-03-04 02:34:00,28.8,14.7,29.71,NNW,328,10.0,12.0,55,0.00,,,0.00,VWS V14.01,2013-03-04 07:34:00,
2013-03-04 02:38:00,28.7,14.6,29.71,NW,304,1.0,13.0,55,0.00,,,0.00,VWS V14.01,2013-03-04 07:38:00,
2013-03-04 02:40:00,28.7,14.6,29.71,WNW,284,7.0,15.0,55,0.00,,,0.00,VWS V14.01,2013-03-04 07:40:00,
2013-03-04 02:43:00,28.7,14.6,29.71,NW,309,16.0,17.0,55,0.00,,,0.00,VWS V14.01,2013-03-04 07:43:00,
2013-03-04 02:46:00,28.7,14.6,29.71,NW,319,6.0,19.0,55,0.00,,,0.00,VWS V14.01,2013-03-04 07:46:00,
2013-03-04 02:51:00,28.7,14.6,29.71,WNW,296,10.0,19.0,55,0.00,,,0.00,VWS V14.01,2013-03-04 07:51:00,
2013-03-04 02:53:00,28.7,15.0,29.71,NW,310,7.0,19.0,56,0.00,,,0.00,VWS V14.01,2013-03-04 07:53:00,
2013-03-04 02:54:00,28.5,14.4,29.71,NW,319,16.0,19.0,55,0.00,,,0.00,VWS V14.01,2013-03-04 07:54:00,
2013-03-04 02:56:00,28.5,14.8,29.71,NNW,329,14.0,20.0,56,0.00,,,0.00,VWS V14.01,2013-03-04 07:56:00,
2013-03-04 02:58:00,28.5,14.4,29.71,NNW,335,8.0,20.0,55,0.00,,,0.00,VWS V14.01,2013-03-04 07:58:00,
2013-03-04 03:02:00,28.5,14.4,29.71,North,11,5.0,22.0,55,0.00,,,0.00,VWS V14.01,2013-03-04 08:02:00,
2013-03-04 03:04:00,28.5,14.8,29.71,WNW,292,4.0,6.0,56,0.00,,,0.00,VWS V14.01,2013-03-04 08:04:00,
2013-03-04 03:05:00,28.5,14.8,29.71,WNW,294,1.0,9.0,56,0.00,,,0.00,VWS V14.01,2013-03-04 08:05:00,
2013-03-04 03:08:00,28.5,14.8,29.71,NW,310,11.0,18.0,56,0.00,,,0.00,VWS V14.01,2013-03-04 08:08:00,
2013-03-04 03:09:00,28.5,14.8,29.71,NNW,333,13.0,18.0,56,0.00,,,0.00,VWS V14.01,2013-03-04 08:09:00,
2013-03-04 03:11:00,28.5,14.8,29.71,NW,317,4.0,18.0,56,0.00,,,0.00,VWS V14.01,2013-03-04 08:11:00,
2013-03-04 03:14:00,28.4,14.7,29.71,West,281,3.0,18.0,56,0.00,,,0.00,VWS V14.01,2013-03-04 08:14:00,
2013-03-04 03:15:00,28.4,14.7,29.71,WNW,294,1.0,18.0,56,0.00,,,0.00,VWS V14.01,2013-03-04 08:15:00,
2013-03-04 03:17:00,28.4,14.7,29.71,NW,313,10.0,18.0,56,0.00,,,0.00,VWS V14.01,2013-03-04 08:17:00,
2013-03-04 03:18:00,28.4,14.7,29.71,West,279,8.0,18.0,56,0.00,,,0.00,VWS V14.01,2013-03-04 08:18:00,
2013-03-04 03:22:00,28.4,15.1,29.71,WNW,290,5.0,18.0,57,0.00,,,0.00,VWS V14.01,2013-03-04 08:22:00,
2013-03-04 03:24:00,28.4,15.1,29.71,WNW,296,2.0,18.0,57,0.00,,,0.00,VWS V14.01,2013-03-04 08:24:00,
2013-03-04 03:28:00,28.4,15.1,29.71,West,275,0.0,18.0,57,0.00,,,0.00,VWS V14.01,2013-03-04 08:28:00,
2013-03-04 03:32:00,28.2,14.9,29.71,West,267,13.0,18.0,57,0.00,,,0.00,VWS V14.01,2013-03-04 08:32:00,
2013-03-04 03:33:00,28.2,14.9,29.71,NW,324,12.0,18.0,57,0.00,,,0.00,VWS V14.01,2013-03-04 08:33:00,
2013-03-04 03:36:00,28.2,14.9,29.71,NW,319,9.0,13.0,57,0.00,,,0.00,VWS V14.01,2013-03-04 08:36:00,
2013-03-04 03:37:00,28.2,14.9,29.71,NW,317,7.0,13.0,57,0.00,,,0.00,VWS V14.01,2013-03-04 08:37:00,
2013-03-04 03:41:00,28.2,15.3,29.71,WNW,299,9.0,13.0,58,0.00,,,0.00,VWS V14.01,2013-03-04 08:41:00,
2013-03-04 03:44:00,28.2,15.3,29.71,NW,316,6.0,13.0,58,0.00,,,0.00,VWS V14.01,2013-03-04 08:44:00,
2013-03-04 03:47:00,28.1,15.2,29.71,WNW,295,5.0,15.0,58,0.00,,,0.00,VWS V14.01,2013-03-04 08:47:00,
2013-03-04 03:51:00,28.1,15.2,29.71,WNW,289,4.0,15.0,58,0.00,,,0.00,VWS V14.01,2013-03-04 08:51:00,
2013-03-04 03:52:00,28.1,15.2,29.71,WNW,287,3.0,15.0,58,0.00,,,0.00,VWS V14.01,2013-03-04 08:52:00,
2013-03-04 03:57:00,28.1,15.6,29.71,NW,320,6.0,15.0,59,0.00,,,0.00,VWS V14.01,2013-03-04 08:57:00,
2013-03-04 04:00:00,28.1,15.6,29.71,NW,319,6.0,15.0,59,0.00,,,0.00,VWS V14.01,2013-03-04 09:00:00,
2013-03-04 04:01:00,28.1,15.6,29.71,North,350,9.0,15.0,59,0.00,,,0.00,VWS V14.01,2013-03-04 09:01:00,
2013-03-04 04:02:00,28.1,15.6,29.71,North,355,7.0,15.0,59,0.00,,,0.00,VWS V14.01,2013-03-04 09:02:00,
2013-03-04 04:03:00,28.1,15.6,29.72,NW,304,6.0,15.0,59,0.00,,,0.00,VWS V14.01,2013-03-04 09:03:00,
2013-03-04 04:07:00,28.1,15.6,29.72,NW,304,6.0,10.0,59,0.00,,,0.00,VWS V14.01,2013-03-04 09:07:00,
2013-03-04 04:09:00,28.1,15.6,29.72,NW,313,5.0,10.0,59,0.00,,,0.00,VWS V14.01,2013-03-04 09:09:00,
2013-03-04 04:12:00,27.9,15.4,29.72,WNW,302,3.0,12.0,59,0.00,,,0.00,VWS V14.01,2013-03-04 09:12:00,
2013-03-04 04:15:00,27.9,15.4,29.72,WNW,300,0.0,12.0,59,0.00,,,0.00,VWS V14.01,2013-03-04 09:15:00,
2013-03-04 04:16:00,27.9,15.4,29.72,NW,312,0.0,12.0,59,0.00,,,0.00,VWS V14.01,2013-03-04 09:16:00,
2013-03-04 04:18:00,27.9,15.4,29.72,WNW,286,9.0,12.0,59,0.00,,,0.00,VWS V14.01,2013-03-04 09:18:00,
2013-03-04 04:20:00,27.9,15.8,29.72,WNW,293,8.0,12.0,60,0.00,,,0.00,VWS V14.01,2013-03-04 09:20:00,
2013-03-04 04:25:00,27.9,15.8,29.72,NNW,339,6.0,12.0,60,0.00,,,0.00,VWS V14.01,2013-03-04 09:25:00,
2013-03-04 04:28:00,27.9,15.8,29.72,NNW,333,11.0,12.0,60,0.00,,,0.00,VWS V14.01,2013-03-04 09:28:00,
2013-03-04 04:29:00,27.9,15.8,29.72,WNW,302,8.0,12.0,60,0.00,,,0.00,VWS V14.01,2013-03-04 09:29:00,
2013-03-04 04:30:00,27.9,15.8,29.72,WNW,293,0.0,12.0,60,0.00,,,0.00,VWS V14.01,2013-03-04 09:30:00,
2013-03-04 04:31:00,27.9,15.8,29.72,NW,315,9.0,13.0,60,0.00,,,0.00,VWS V14.01,2013-03-04 09:31:00,
2013-03-04 04:33:00,27.9,15.8,29.72,NW,309,6.0,13.0,60,0.00,,,0.00,VWS V14.01,2013-03-04 09:33:00,
2013-03-04 04:36:00,27.9,15.8,29.72,West,281,4.0,11.0,60,0.00,,,0.00,VWS V14.01,2013-03-04 09:36:00,
2013-03-04 04:37:00,27.9,15.8,29.72,WNW,300,9.0,14.0,60,0.00,,,0.00,VWS V14.01,2013-03-04 09:37:00,
2013-03-04 04:39:00,27.9,15.8,29.72,WNW,294,9.0,14.0,60,0.00,,,0.00,VWS V14.01,2013-03-04 09:39:00,
2013-03-04 04:41:00,27.9,15.8,29.72,NW,319,10.0,14.0,60,0.00,,,0.00,VWS V14.01,2013-03-04 09:41:00,
2013-03-04 04:42:00,27.9,15.8,29.72,NW,321,6.0,14.0,60,0.00,,,0.00,VWS V14.01,2013-03-04 09:42:00,
2013-03-04 04:45:00,27.8,15.7,29.72,NNW,328,9.0,14.0,60,0.00,,,0.00,VWS V14.01,2013-03-04 09:45:00,
2013-03-04 04:46:00,27.8,15.7,29.72,WNW,300,7.0,14.0,60,0.00,,,0.00,VWS V14.01,2013-03-04 09:46:00,
2013-03-04 04:50:00,27.8,16.1,29.72,WNW,298,5.0,14.0,61,0.00,,,0.00,VWS V14.01,2013-03-04 09:50:00,
2013-03-04 04:52:00,27.8,16.1,29.72,NW,321,5.0,16.0,61,0.00,,,0.00,VWS V14.01,2013-03-04 09:52:00,
2013-03-04 04:54:00,27.8,16.1,29.72,WNW,284,6.0,16.0,61,0.00,,,0.00,VWS V14.01,2013-03-04 09:54:00,
2013-03-04 04:55:00,27.8,16.1,29.72,NW,317,8.0,16.0,61,0.00,,,0.00,VWS V14.01,2013-03-04 09:55:00,
2013-03-04 04:57:00,27.8,16.1,29.72,NW,304,14.0,16.0,61,0.00,,,0.00,VWS V14.01,2013-03-04 09:57:00,
2013-03-04 04:58:00,27.8,16.1,29.72,NW,307,3.0,16.0,61,0.00,,,0.00,VWS V14.01,2013-03-04 09:58:00,
2013-03-04 05:00:00,27.8,16.1,29.72,West,281,6.0,16.0,61,0.00,,,0.00,VWS V14.01,2013-03-04 10:00:00,
2013-03-04 05:02:00,27.8,16.1,29.72,WNW,290,5.0,16.0,61,0.00,,,0.00,VWS V14.01,2013-03-04 10:02:00,
2013-03-04 05:05:00,27.8,16.1,29.72,WNW,294,10.0,14.0,61,0.00,,,0.00,VWS V14.01,2013-03-04 10:05:00,
2013-03-04 05:10:00,27.9,16.2,29.72,WNW,288,2.0,14.0,61,0.00,,,0.00,VWS V14.01,2013-03-04 10:10:00,
2013-03-04 05:11:00,27.9,16.2,29.72,WNW,292,2.0,14.0,61,0.00,,,0.00,VWS V14.01,2013-03-04 10:11:00,
2013-03-04 05:12:00,27.9,16.2,29.72,WNW,296,10.0,14.0,61,0.00,,,0.00,VWS V14.01,2013-03-04 10:12:00,
2013-03-04 05:13:00,27.9,16.2,29.72,NW,321,11.0,14.0,61,0.00,,,0.00,VWS V14.01,2013-03-04 10:13:00,
2013-03-04 05:17:00,27.8,16.1,29.72,WNW,299,9.0,14.0,61,0.00,,,0.00,VWS V14.01,2013-03-04 10:17:00,
2013-03-04 05:18:00,27.8,16.1,29.73,WNW,299,3.0,14.0,61,0.00,,,0.00,VWS V14.01,2013-03-04 10:18:00,
2013-03-04 05:21:00,27.8,16.5,29.73,NW,313,7.0,14.0,62,0.00,,,0.00,VWS V14.01,2013-03-04 10:21:00,
2013-03-04 05:26:00,27.8,16.5,29.73,NNW,329,4.0,14.0,62,0.00,,,0.00,VWS V14.01,2013-03-04 10:26:00,
2013-03-04 05:27:00,27.8,16.5,29.73,WNW,296,0.0,14.0,62,0.00,,,0.00,VWS V14.01,2013-03-04 10:27:00,
2013-03-04 05:30:00,27.8,16.5,29.73,WNW,290,5.0,14.0,62,0.00,,,0.00,VWS V14.01,2013-03-04 10:30:00,
2013-03-04 05:33:00,27.8,16.5,29.73,West,281,10.0,14.0,62,0.00,,,0.00,VWS V14.01,2013-03-04 10:33:00,
2013-03-04 05:35:00,27.8,16.5,29.73,WNW,290,0.0,12.0,62,0.00,,,0.00,VWS V14.01,2013-03-04 10:35:00,
2013-03-04 05:36:00,27.8,16.5,29.73,WNW,284,0.0,12.0,62,0.00,,,0.00,VWS V14.01,2013-03-04 10:36:00,
2013-03-04 05:40:00,27.8,16.5,29.73,WNW,302,3.0,12.0,62,0.00,,,0.00,VWS V14.01,2013-03-04 10:40:00,
2013-03-04 05:41:00,27.8,16.5,29.73,NW,305,10.0,12.0,62,0.00,,,0.00,VWS V14.01,2013-03-04 10:41:00,
2013-03-04 05:45:00,27.8,16.9,29.73,NW,315,6.0,12.0,63,0.00,,,0.00,VWS V14.01,2013-03-04 10:45:00,
2013-03-04 05:46:00,27.8,16.9,29.73,West,264,3.0,12.0,63,0.00,,,0.00,VWS V14.01,2013-03-04 10:46:00,
2013-03-04 05:50:00,27.8,16.9,29.73,WNW,296,8.0,12.0,63,0.00,,,0.00,VWS V14.01,2013-03-04 10:50:00,
2013-03-04 05:51:00,27.8,16.9,29.73,WNW,300,7.0,12.0,63,0.00,,,0.00,VWS V14.01,2013-03-04 10:51:00,
2013-03-04 05:53:00,27.8,16.9,29.73,WNW,293,3.0,12.0,63,0.00,,,0.00,VWS V14.01,2013-03-04 10:53:00,
2013-03-04 05:57:00,27.8,16.9,29.73,WNW,300,0.0,12.0,63,0.00,,,0.00,VWS V14.01,2013-03-04 10:57:00,
2013-03-04 05:59:00,27.8,16.9,29.73,WNW,303,10.0,12.0,63,0.00,,,0.00,VWS V14.01,2013-03-04 10:59:00,
2013-03-04 06:00:00,27.8,16.9,29.73,NW,312,7.0,12.0,63,0.00,,,0.00,VWS V14.01,2013-03-04 11:00:00,
2013-03-04 06:02:00,27.8,16.9,29.73,WNW,296,8.0,14.0,63,0.00,,,0.00,VWS V14.01,2013-03-04 11:02:00,
2013-03-04 06:03:00,27.8,16.9,29.73,WNW,292,0.0,14.0,63,0.00,,,0.00,VWS V14.01,2013-03-04 11:03:00,
2013-03-04 06:06:00,27.8,16.9,29.73,WNW,294,10.0,10.0,63,0.00,,,0.00,VWS V14.01,2013-03-04 11:06:00,
2013-03-04 06:08:00,27.8,16.9,29.73,WNW,298,9.0,10.0,63,0.00,,,0.00,VWS V14.01,2013-03-04 11:08:00,
2013-03-04 06:09:00,27.8,16.9,29.73,NW,309,7.0,13.0,63,0.00,,,0.00,VWS V14.01,2013-03-04 11:09:00,
2013-03-04 06:14:00,27.8,16.9,29.73,WNW,286,5.0,13.0,63,0.00,,,0.00,VWS V14.01,2013-03-04 11:14:00,
2013-03-04 06:15:00,27.8,16.9,29.73,WNW,285,4.0,13.0,63,0.00,,,0.00,VWS V14.01,2013-03-04 11:15:00,
2013-03-04 06:19:00,27.8,16.9,29.73,WNW,297,5.0,13.0,63,0.00,,,0.00,VWS V14.01,2013-03-04 11:19:00,
2013-03-04 06:20:00,27.8,16.9,29.73,WNW,284,8.0,14.0,63,0.00,,,0.00,VWS V14.01,2013-03-04 11:20:00,
2013-03-04 06:25:00,27.8,16.9,29.73,WNW,284,4.0,15.0,63,0.00,,,0.00,VWS V14.01,2013-03-04 11:25:00,
2013-03-04 06:27:00,27.8,16.9,29.73,NW,314,10.0,15.0,63,0.00,,,0.00,VWS V14.01,2013-03-04 11:27:00,
2013-03-04 06:28:00,27.8,16.9,29.73,WNW,303,9.0,15.0,63,0.00,,,0.00,VWS V14.01,2013-03-04 11:28:00,
2013-03-04 06:33:00,27.8,17.2,29.74,WNW,303,9.0,15.0,64,0.00,,,0.00,VWS V14.01,2013-03-04 11:33:00,
2013-03-04 06:34:00,27.8,17.2,29.74,West,276,6.0,11.0,64,0.00,,,0.00,VWS V14.01,2013-03-04 11:34:00,
2013-03-04 06:37:00,27.9,17.3,29.74,WNW,300,3.0,11.0,64,0.00,,,0.00,VWS V14.01,2013-03-04 11:37:00,
2013-03-04 06:39:00,27.9,17.3,29.74,West,280,4.0,13.0,64,0.00,,,0.00,VWS V14.01,2013-03-04 11:39:00,
2013-03-04 06:41:00,27.9,17.3,29.74,WNW,297,9.0,14.0,64,0.00,,,0.00,VWS V14.01,2013-03-04 11:41:00,
2013-03-04 06:43:00,27.9,17.3,29.74,NW,312,4.0,14.0,64,0.00,,,0.00,VWS V14.01,2013-03-04 11:43:00,
2013-03-04 06:44:00,27.9,17.3,29.74,NW,321,7.0,14.0,64,0.00,,,0.00,VWS V14.01,2013-03-04 11:44:00,
2013-03-04 06:47:00,28.1,17.5,29.74,WNW,283,8.0,15.0,64,0.00,,,0.00,VWS V14.01,2013-03-04 11:47:00,
2013-03-04 06:50:00,28.1,17.5,29.75,WNW,296,6.0,15.0,64,0.00,,,0.00,VWS V14.01,2013-03-04 11:50:00,
2013-03-04 06:55:00,28.2,17.2,29.75,WNW,298,5.0,15.0,63,0.00,,,0.00,VWS V14.01,2013-03-04 11:55:00,
2013-03-04 06:58:00,28.4,17.4,29.75,WNW,284,12.0,16.0,63,0.00,,,0.00,VWS V14.01,2013-03-04 11:58:00,
2013-03-04 06:59:00,28.4,17.4,29.75,WNW,302,12.0,16.0,63,0.00,,,0.00,VWS V14.01,2013-03-04 11:59:00,
2013-03-04 07:01:00,28.5,17.5,29.75,NW,306,14.0,16.0,63,0.00,,,0.00,VWS V14.01,2013-03-04 12:01:00,
2013-03-04 07:04:00,28.7,17.7,29.75,West,279,4.0,4.0,63,0.00,,,0.00,VWS V14.01,2013-03-04 12:04:00,
2013-03-04 07:07:00,28.7,17.3,29.75,WNW,292,4.0,12.0,62,0.00,,,0.00,VWS V14.01,2013-03-04 12:07:00,
2013-03-04 07:10:00,28.8,17.8,29.75,West,280,3.0,12.0,63,0.00,,,0.00,VWS V14.01,2013-03-04 12:10:00,
2013-03-04 07:12:00,29.0,17.6,29.75,WNW,302,5.0,12.0,62,0.00,,,0.00,VWS V14.01,2013-03-04 12:12:00,
2013-03-04 07:14:00,29.1,17.7,29.75,NW,317,11.0,14.0,62,0.00,,,0.00,VWS V14.01,2013-03-04 12:14:00,
2013-03-04 07:16:00,29.3,17.5,29.75,NW,317,7.0,14.0,61,0.00,,,0.00,VWS V14.01,2013-03-04 12:16:00,
2013-03-04 07:17:00,29.3,17.5,29.75,WNW,284,0.0,14.0,61,0.00,,,0.00,VWS V14.01,2013-03-04 12:17:00,
2013-03-04 07:19:00,29.3,17.5,29.75,WNW,290,4.0,14.0,61,0.00,,,0.00,VWS V14.01,2013-03-04 12:19:00,
2013-03-04 07:20:00,29.3,17.5,29.75,WNW,291,15.0,17.0,61,0.00,,,0.00,VWS V14.01,2013-03-04 12:20:00,
2013-03-04 07:21:00,29.4,17.6,29.75,NW,319,8.0,17.0,61,0.00,,,0.00,VWS V14.01,2013-03-04 12:21:00,
2013-03-04 07:23:00,29.4,17.6,29.75,West,279,10.0,17.0,61,0.00,,,0.00,VWS V14.01,2013-03-04 12:23:00,
2013-03-04 07:27:00,29.5,17.7,29.75,WNW,297,14.0,20.0,61,0.00,,,0.00,VWS V14.01,2013-03-04 12:27:00,
2013-03-04 07:28:00,29.7,17.5,29.75,NW,315,7.0,20.0,60,0.00,,,0.00,VWS V14.01,2013-03-04 12:28:00,
2013-03-04 07:30:00,29.8,17.6,29.75,NNW,334,16.0,20.0,60,0.00,,,0.00,VWS V14.01,2013-03-04 12:30:00,
2013-03-04 07:33:00,30.1,17.9,29.75,NW,323,10.0,20.0,60,0.00,,,0.00,VWS V14.01,2013-03-04 12:33:00,
2013-03-04 07:36:00,30.3,17.7,29.75,WNW,289,4.0,13.0,59,0.00,,,0.00,VWS V14.01,2013-03-04 12:36:00,
2013-03-04 07:38:00,30.4,17.8,29.75,NW,309,14.0,15.0,59,0.00,,,0.00,VWS V14.01,2013-03-04 12:38:00,
2013-03-04 07:39:00,30.6,18.0,29.75,WNW,285,6.0,15.0,59,0.00,,,0.00,VWS V14.01,2013-03-04 12:39:00,
2013-03-04 07:40:00,30.6,18.0,29.75,NNW,327,8.0,15.0,59,0.00,,,0.00,VWS V14.01,2013-03-04 12:40:00,
2013-03-04 07:41:00,30.7,18.1,29.75,WNW,301,1.0,15.0,59,0.00,,,0.00,VWS V14.01,2013-03-04 12:41:00,
2013-03-04 07:46:00,30.7,18.1,29.75,NW,312,3.0,19.0,59,0.00,,,0.00,VWS V14.01,2013-03-04 12:46:00,
2013-03-04 07:47:00,30.9,17.9,29.75,NNW,327,8.0,19.0,58,0.00,,,0.00,VWS V14.01,2013-03-04 12:47:00,
2013-03-04 07:49:00,31.0,18.0,29.75,WNW,287,4.0,19.0,58,0.00,,,0.00,VWS V14.01,2013-03-04 12:49:00,
2013-03-04 07:52:00,31.2,18.2,29.75,NNW,344,9.0,27.0,58,0.00,,,0.00,VWS V14.01,2013-03-04 12:52:00,
2013-03-04 07:53:00,31.2,18.2,29.75,NNW,329,13.0,27.0,58,0.00,,,0.00,VWS V14.01,2013-03-04 12:53:00,
2013-03-04 07:58:00,31.3,18.2,29.75,NW,314,14.0,27.0,58,0.00,,,0.00,VWS V14.01,2013-03-04 12:58:00,
2013-03-04 08:00:00,31.3,18.2,29.75,NW,304,16.0,27.0,58,0.00,,,0.00,VWS V14.01,2013-03-04 13:00:00,
2013-03-04 08:01:00,31.3,17.9,29.75,WNW,287,12.0,27.0,57,0.00,,,0.00,VWS V14.01,2013-03-04 13:01:00,
2013-03-04 08:02:00,31.3,18.2,29.75,NW,305,8.0,27.0,58,0.00,,,0.00,VWS V14.01,2013-03-04 13:02:00,
2013-03-04 08:03:00,31.3,17.9,29.76,NW,317,8.0,27.0,57,0.00,,,0.00,VWS V14.01,2013-03-04 13:03:00,
2013-03-04 08:06:00,31.3,17.9,29.76,NW,304,12.0,28.0,57,0.00,,,0.00,VWS V14.01,2013-03-04 13:06:00,
2013-03-04 08:08:00,31.3,17.9,29.76,WNW,295,15.0,28.0,57,0.00,,,0.00,VWS V14.01,2013-03-04 13:08:00,
2013-03-04 08:09:00,31.3,18.2,29.76,West,279,10.0,28.0,58,0.00,,,0.00,VWS V14.01,2013-03-04 13:09:00,
2013-03-04 08:11:00,31.5,18.0,29.76,NW,319,18.0,28.0,57,0.00,,,0.00,VWS V14.01,2013-03-04 13:11:00,
2013-03-04 08:14:00,31.8,18.3,29.76,NW,326,15.0,28.0,57,0.00,,,0.00,VWS V14.01,2013-03-04 13:14:00,
2013-03-04 08:15:00,31.8,18.3,29.76,NNW,346,15.0,28.0,57,0.00,,,0.00,VWS V14.01,2013-03-04 13:15:00,
2013-03-04 08:16:00,31.9,18.0,29.76,West,278,9.0,28.0,56,0.00,,,0.00,VWS V14.01,2013-03-04 13:16:00,
2013-03-04 08:19:00,32.2,18.3,29.75,NW,317,16.0,28.0,56,0.00,,,0.00,VWS V14.01,2013-03-04 13:19:00,
2013-03-04 08:20:00,32.4,18.5,29.75,NNW,341,4.0,28.0,56,0.00,,,0.00,VWS V14.01,2013-03-04 13:20:00,
2013-03-04 08:21:00,32.4,18.5,29.75,NW,321,14.0,28.0,56,0.00,,,0.00,VWS V14.01,2013-03-04 13:21:00,
2013-03-04 08:22:00,32.4,18.5,29.75,West,280,17.0,28.0,56,0.00,,,0.00,VWS V14.01,2013-03-04 13:22:00,
2013-03-04 08:26:00,32.4,18.5,29.75,WNW,298,9.0,28.0,56,0.00,,,0.00,VWS V14.01,2013-03-04 13:26:00,
2013-03-04 08:27:00,32.4,18.5,29.75,West,281,11.0,28.0,56,0.00,,,0.00,VWS V14.01,2013-03-04 13:27:00,
2013-03-04 08:31:00,32.7,18.3,29.75,North,5,7.0,28.0,55,0.00,,,0.00,VWS V14.01,2013-03-04 13:31:00,
2013-03-04 08:33:00,32.8,18.4,29.75,NW,307,4.0,28.0,55,0.00,,,0.00,VWS V14.01,2013-03-04 13:33:00,
2013-03-04 08:35:00,33.2,18.8,29.75,NW,313,11.0,20.0,55,0.00,,,0.00,VWS V14.01,2013-03-04 13:35:00,
2013-03-04 08:36:00,33.1,18.3,29.75,NNW,330,14.0,20.0,54,0.00,,,0.00,VWS V14.01,2013-03-04 13:36:00,
2013-03-04 08:41:00,32.9,18.1,29.75,NW,309,16.0,21.0,54,0.00,,,0.00,VWS V14.01,2013-03-04 13:41:00,
2013-03-04 08:42:00,32.9,18.5,29.75,WNW,298,13.0,21.0,55,0.00,,,0.00,VWS V14.01,2013-03-04 13:42:00,
2013-03-04 08:44:00,32.9,18.5,29.75,NNW,342,17.0,21.0,55,0.00,,,0.00,VWS V14.01,2013-03-04 13:44:00,
2013-03-04 08:45:00,32.9,18.5,29.75,NNW,344,13.0,22.0,55,0.00,,,0.00,VWS V14.01,2013-03-04 13:45:00,
2013-03-04 08:48:00,32.9,18.5,29.75,WNW,286,13.0,22.0,55,0.00,,,0.00,VWS V14.01,2013-03-04 13:48:00,
2013-03-04 08:51:00,33.1,18.7,29.75,West,280,8.0,27.0,55,0.00,,,0.00,VWS V14.01,2013-03-04 13:51:00,
2013-03-04 08:54:00,33.1,18.7,29.75,NNW,344,12.0,27.0,55,0.00,,,0.00,VWS V14.01,2013-03-04 13:54:00,
2013-03-04 08:55:00,33.1,18.7,29.75,WNW,298,10.0,27.0,55,0.00,,,0.00,VWS V14.01,2013-03-04 13:55:00,
2013-03-04 08:57:00,33.2,18.8,29.75,North,360,15.0,27.0,55,0.00,,,0.00,VWS V14.01,2013-03-04 13:57:00,
2013-03-04 09:00:00,33.4,19.0,29.75,NW,325,20.0,27.0,55,0.00,,,0.00,VWS V14.01,2013-03-04 14:00:00,
2013-03-04 09:02:00,33.5,18.6,29.75,NW,323,5.0,27.0,54,0.00,,,0.00,VWS V14.01,2013-03-04 14:02:00,
2013-03-04 09:03:00,33.7,19.3,29.75,NW,319,15.0,27.0,55,0.00,,,0.00,VWS V14.01,2013-03-04 14:03:00,
2013-03-04 09:04:00,33.7,18.8,29.75,NNW,333,13.0,20.0,54,0.00,,,0.00,VWS V14.01,2013-03-04 14:04:00,
2013-03-04 09:05:00,33.7,18.4,29.75,NW,325,15.0,21.0,53,0.00,,,0.00,VWS V14.01,2013-03-04 14:05:00,
2013-03-04 09:07:00,33.7,18.8,29.75,NW,307,7.0,21.0,54,0.00,,,0.00,VWS V14.01,2013-03-04 14:07:00,
2013-03-04 09:08:00,33.7,18.8,29.75,WSW,246,9.0,21.0,54,0.00,,,0.00,VWS V14.01,2013-03-04 14:08:00,
2013-03-04 09:09:00,33.8,18.9,29.75,NW,304,17.0,21.0,54,0.00,,,0.00,VWS V14.01,2013-03-04 14:09:00,
2013-03-04 09:11:00,33.8,18.9,29.75,NW,312,10.0,21.0,54,0.00,,,0.00,VWS V14.01,2013-03-04 14:11:00,
2013-03-04 09:12:00,34.0,18.7,29.75,WNW,289,12.0,21.0,53,0.00,,,0.00,VWS V14.01,2013-03-04 14:12:00,
2013-03-04 09:13:00,34.0,18.7,29.75,NW,319,13.0,21.0,53,0.00,,,0.00,VWS V14.01,2013-03-04 14:13:00,
2013-03-04 09:19:00,34.3,19.0,29.75,NW,317,12.0,23.0,53,0.00,,,0.00,VWS V14.01,2013-03-04 14:19:00,
2013-03-04 09:20:00,34.3,18.5,29.75,WNW,302,9.0,23.0,52,0.00,,,0.00,VWS V14.01,2013-03-04 14:20:00,
2013-03-04 09:21:00,34.4,19.5,29.75,WNW,292,16.0,23.0,54,0.00,,,0.00,VWS V14.01,2013-03-04 14:21:00,
2013-03-04 09:23:00,34.7,18.9,29.75,West,275,11.0,23.0,52,0.00,,,0.00,VWS V14.01,2013-03-04 14:23:00,
2013-03-04 09:25:00,34.7,18.9,29.75,West,281,18.0,23.0,52,0.00,,,0.00,VWS V14.01,2013-03-04 14:25:00,
2013-03-04 09:27:00,34.7,18.9,29.75,NW,313,21.0,27.0,52,0.00,,,0.00,VWS V14.01,2013-03-04 14:27:00,
2013-03-04 09:31:00,34.6,18.8,29.75,NNW,344,21.0,27.0,52,0.00,,,0.00,VWS V14.01,2013-03-04 14:31:00,
2013-03-04 09:32:00,34.4,18.6,29.75,NW,306,9.0,27.0,52,0.00,,,0.00,VWS V14.01,2013-03-04 14:32:00,
2013-03-04 09:33:00,34.4,19.0,29.75,NW,305,17.0,27.0,53,0.00,,,0.00,VWS V14.01,2013-03-04 14:33:00,
2013-03-04 09:35:00,34.3,18.5,29.75,NW,306,19.0,24.0,52,0.00,,,0.00,VWS V14.01,2013-03-04 14:35:00,
2013-03-04 09:37:00,34.6,19.2,29.75,NW,315,3.0,24.0,53,0.00,,,0.00,VWS V14.01,2013-03-04 14:37:00,
2013-03-04 09:38:00,34.9,19.5,29.75,NNW,328,13.0,24.0,53,0.00,,,0.00,VWS V14.01,2013-03-04 14:38:00,
2013-03-04 09:40:00,34.9,19.1,29.75,NW,321,15.0,24.0,52,0.00,,,0.00,VWS V14.01,2013-03-04 14:40:00,
2013-03-04 09:42:00,34.9,19.1,29.75,NW,317,18.0,26.0,52,0.00,,,0.00,VWS V14.01,2013-03-04 14:42:00,
2013-03-04 09:43:00,34.9,19.1,29.75,WNW,291,12.0,26.0,52,0.00,,,0.00,VWS V14.01,2013-03-04 14:43:00,
2013-03-04 09:46:00,35.0,19.2,29.75,WNW,302,18.0,26.0,52,0.00,,,0.00,VWS V14.01,2013-03-04 14:46:00,
2013-03-04 09:47:00,35.0,19.2,29.75,WNW,297,17.0,26.0,52,0.00,,,0.00,VWS V14.01,2013-03-04 14:47:00,
2013-03-04 09:48:00,35.0,18.7,29.75,NNW,327,8.0,26.0,51,0.00,,,0.00,VWS V14.01,2013-03-04 14:48:00,
2013-03-04 09:50:00,35.0,18.7,29.75,WNW,292,15.0,26.0,51,0.00,,,0.00,VWS V14.01,2013-03-04 14:50:00,
2013-03-04 09:51:00,34.9,19.1,29.75,WNW,296,13.0,26.0,52,0.00,,,0.00,VWS V14.01,2013-03-04 14:51:00,
2013-03-04 09:54:00,34.7,18.9,29.75,WNW,300,12.0,26.0,52,0.00,,,0.00,VWS V14.01,2013-03-04 14:54:00,
2013-03-04 09:58:00,34.9,19.1,29.75,WNW,290,13.0,26.0,52,0.00,,,0.00,VWS V14.01,2013-03-04 14:58:00,
2013-03-04 10:01:00,35.0,18.7,29.75,NNW,331,12.0,28.0,51,0.00,,,0.00,VWS V14.01,2013-03-04 15:01:00,
2013-03-04 10:02:00,34.9,19.1,29.75,WNW,293,22.0,28.0,52,0.00,,,0.00,VWS V14.01,2013-03-04 15:02:00,
2013-03-04 10:03:00,34.9,19.1,29.75,West,281,15.0,28.0,52,0.00,,,0.00,VWS V14.01,2013-03-04 15:03:00,
2013-03-04 10:08:00,35.3,19.0,29.75,West,271,17.0,24.0,51,0.00,,,0.00,VWS V14.01,2013-03-04 15:08:00,
2013-03-04 10:10:00,35.3,19.5,29.75,West,272,7.0,24.0,52,0.00,,,0.00,VWS V14.01,2013-03-04 15:10:00,
2013-03-04 10:13:00,35.5,19.2,29.75,NW,312,15.0,24.0,51,0.00,,,0.00,VWS V14.01,2013-03-04 15:13:00,
2013-03-04 10:14:00,35.5,19.2,29.75,WNW,290,19.0,25.0,51,0.00,,,0.00,VWS V14.01,2013-03-04 15:14:00,
2013-03-04 10:15:00,35.5,19.2,29.75,NW,306,15.0,25.0,51,0.00,,,0.00,VWS V14.01,2013-03-04 15:15:00,
2013-03-04 10:19:00,35.5,19.2,29.75,NW,312,13.0,25.0,51,0.00,,,0.00,VWS V14.01,2013-03-04 15:19:00,
2013-03-04 10:20:00,35.6,19.3,29.75,NNW,329,9.0,25.0,51,0.00,,,0.00,VWS V14.01,2013-03-04 15:20:00,
2013-03-04 10:21:00,35.6,19.3,29.75,NNW,333,20.0,25.0,51,0.00,,,0.00,VWS V14.01,2013-03-04 15:21:00,
2013-03-04 10:26:00,35.8,19.0,29.75,NW,317,9.0,25.0,50,0.00,,,0.00,VWS V14.01,2013-03-04 15:26:00,
2013-03-04 10:29:00,36.2,19.8,29.75,NW,309,15.0,25.0,51,0.00,,,0.00,VWS V14.01,2013-03-04 15:29:00,
2013-03-04 10:31:00,36.3,19.0,29.75,NW,304,8.0,25.0,49,0.00,,,0.00,VWS V14.01,2013-03-04 15:31:00,
2013-03-04 10:34:00,36.5,19.2,29.76,NW,309,15.0,26.0,49,0.00,,,0.00,VWS V14.01,2013-03-04 15:34:00,
2013-03-04 10:36:00,36.0,18.7,29.76,WNW,300,11.0,26.0,49,0.00,,,0.00,VWS V14.01,2013-03-04 15:36:00,
2013-03-04 10:37:00,36.0,19.2,29.76,West,280,12.0,26.0,50,0.00,,,0.00,VWS V14.01,2013-03-04 15:37:00,
2013-03-04 10:40:00,36.2,19.4,29.76,NW,307,23.0,26.0,50,0.00,,,0.00,VWS V14.01,2013-03-04 15:40:00,
2013-03-04 10:45:00,36.5,19.2,29.76,NW,304,18.0,26.0,49,0.00,,,0.00,VWS V14.01,2013-03-04 15:45:00,
2013-03-04 10:46:00,36.5,19.2,29.76,WNW,297,8.0,26.0,49,0.00,,,0.00,VWS V14.01,2013-03-04 15:46:00,
2013-03-04 10:49:00,36.5,18.7,29.75,NNW,328,12.0,26.0,48,0.00,,,0.00,VWS V14.01,2013-03-04 15:49:00,
2013-03-04 10:50:00,36.6,18.8,29.75,NW,306,16.0,26.0,48,0.00,,,0.00,VWS V14.01,2013-03-04 15:50:00,
2013-03-04 10:55:00,36.6,18.8,29.75,WNW,291,18.0,26.0,48,0.00,,,0.00,VWS V14.01,2013-03-04 15:55:00,
2013-03-04 10:56:00,36.8,19.0,29.75,WNW,298,22.0,26.0,48,0.00,,,0.00,VWS V14.01,2013-03-04 15:56:00,
2013-03-04 10:57:00,36.8,19.0,29.75,WNW,290,9.0,26.0,48,0.00,,,0.00,VWS V14.01,2013-03-04 15:57:00,
2013-03-04 11:00:00,36.9,18.6,29.75,NNW,331,19.0,26.0,47,0.00,,,0.00,VWS V14.01,2013-03-04 16:00:00,
2013-03-04 11:03:00,37.0,18.7,29.75,NW,311,10.0,26.0,47,0.00,,,0.00,VWS V14.01,2013-03-04 16:03:00,
2013-03-04 11:04:00,37.0,18.7,29.75,NW,307,8.0,22.0,47,0.00,,,0.00,VWS V14.01,2013-03-04 16:04:00,
2013-03-04 11:05:00,37.2,18.8,29.75,WNW,286,20.0,22.0,47,0.00,,,0.00,VWS V14.01,2013-03-04 16:05:00,
2013-03-04 11:10:00,37.8,18.9,29.75,NNW,346,12.0,22.0,46,0.00,,,0.00,VWS V14.01,2013-03-04 16:10:00,
2013-03-04 11:11:00,37.8,18.9,29.75,WNW,294,20.0,22.0,46,0.00,,,0.00,VWS V14.01,2013-03-04 16:11:00,
2013-03-04 11:14:00,37.9,19.0,29.75,NW,308,19.0,22.0,46,0.00,,,0.00,VWS V14.01,2013-03-04 16:14:00,
2013-03-04 11:15:00,37.9,18.5,29.75,WNW,289,15.0,22.0,45,0.00,,,0.00,VWS V14.01,2013-03-04 16:15:00,
2013-03-04 11:17:00,37.8,18.4,29.75,NW,305,23.0,25.0,45,0.00,,,0.00,VWS V14.01,2013-03-04 16:17:00,
2013-03-04 11:19:00,37.8,18.4,29.75,WNW,303,10.0,25.0,45,0.00,,,0.00,VWS V14.01,2013-03-04 16:19:00,
2013-03-04 11:20:00,37.9,19.0,29.75,WNW,286,5.0,25.0,46,0.00,,,0.00,VWS V14.01,2013-03-04 16:20:00,
2013-03-04 11:22:00,38.2,18.8,29.75,NW,309,6.0,25.0,45,0.00,,,0.00,VWS V14.01,2013-03-04 16:22:00,
2013-03-04 11:25:00,38.2,18.8,29.75,NW,316,20.0,25.0,45,0.00,,,0.00,VWS V14.01,2013-03-04 16:25:00,
2013-03-04 11:27:00,38.0,18.6,29.75,WSW,243,13.0,25.0,45,0.00,,,0.00,VWS V14.01,2013-03-04 16:27:00,
2013-03-04 11:29:00,38.2,19.3,29.75,WNW,290,19.0,25.0,46,0.00,,,0.00,VWS V14.01,2013-03-04 16:29:00,
2013-03-04 11:30:00,38.5,19.5,29.75,NW,314,10.0,25.0,46,0.00,,,0.00,VWS V14.01,2013-03-04 16:30:00,
2013-03-04 11:33:00,38.2,18.2,29.75,WNW,302,8.0,25.0,44,0.00,,,0.00,VWS V14.01,2013-03-04 16:33:00,
2013-03-04 11:37:00,38.5,19.0,29.75,WNW,301,13.0,18.0,45,0.00,,,0.00,VWS V14.01,2013-03-04 16:37:00,
2013-03-04 11:38:00,38.6,19.1,29.75,WNW,298,16.0,19.0,45,0.00,,,0.00,VWS V14.01,2013-03-04 16:38:00,
2013-03-04 11:40:00,38.6,18.6,29.75,WNW,298,14.0,21.0,44,0.00,,,0.00,VWS V14.01,2013-03-04 16:40:00,
2013-03-04 11:43:00,39.1,19.6,29.75,NW,308,16.0,21.0,45,0.00,,,0.00,VWS V14.01,2013-03-04 16:43:00,
2013-03-04 11:46:00,39.3,19.2,29.75,West,281,9.0,21.0,44,0.00,,,0.00,VWS V14.01,2013-03-04 16:46:00,
2013-03-04 11:47:00,39.5,18.9,29.75,NW,311,17.0,23.0,43,0.00,,,0.00,VWS V14.01,2013-03-04 16:47:00,
2013-03-04 11:48:00,39.5,18.9,29.74,WSW,253,18.0,23.0,43,0.00,,,0.00,VWS V14.01,2013-03-04 16:48:00,
2013-03-04 11:53:00,39.5,18.9,29.74,North,355,16.0,26.0,43,0.00,,,0.00,VWS V14.01,2013-03-04 16:53:00,
2013-03-04 11:54:00,39.2,18.6,29.74,NNW,331,10.0,26.0,43,0.00,,,0.00,VWS V14.01,2013-03-04 16:54:00,
2013-03-04 11:59:00,39.5,18.9,29.74,NW,311,7.0,26.0,43,0.00,,,0.00,VWS V14.01,2013-03-04 16:59:00,
2013-03-04 12:00:00,39.6,19.0,29.74,WNW,290,8.0,26.0,43,0.00,,,0.00,VWS V14.01,2013-03-04 17:00:00,
2013-03-04 12:01:00,39.8,19.1,29.74,West,272,15.0,26.0,43,0.00,,,0.00,VWS V14.01,2013-03-04 17:01:00,
2013-03-04 12:06:00,39.8,18.6,29.74,NW,306,13.0,26.0,42,0.00,,,0.00,VWS V14.01,2013-03-04 17:06:00,
2013-03-04 12:07:00,39.8,18.6,29.74,NNW,331,10.0,26.0,42,0.00,,,0.00,VWS V14.01,2013-03-04 17:07:00,
2013-03-04 12:11:00,40.1,18.9,29.74,NW,326,16.0,26.0,42,0.00,,,0.00,VWS V14.01,2013-03-04 17:11:00,
2013-03-04 12:12:00,40.1,18.9,29.74,West,269,14.0,26.0,42,0.00,,,0.00,VWS V14.01,2013-03-04 17:12:00,
2013-03-04 12:13:00,40.1,18.9,29.74,WNW,290,15.0,26.0,42,0.00,,,0.00,VWS V14.01,2013-03-04 17:13:00,
2013-03-04 12:16:00,40.2,19.5,29.74,NNW,327,6.0,26.0,43,0.00,,,0.00,VWS V14.01,2013-03-04 17:16:00,
2013-03-04 12:18:00,40.6,18.8,29.73,WNW,300,10.0,26.0,41,0.00,,,0.00,VWS V14.01,2013-03-04 17:18:00,
2013-03-04 12:19:00,40.6,18.8,29.73,West,279,8.0,26.0,41,0.00,,,0.00,VWS V14.01,2013-03-04 17:19:00,
2013-03-04 12:23:00,40.8,18.9,29.73,WNW,282,22.0,26.0,41,0.00,,,0.00,VWS V14.01,2013-03-04 17:23:00,
2013-03-04 12:24:00,40.6,18.8,29.73,NNW,348,6.0,26.0,41,0.00,,,0.00,VWS V14.01,2013-03-04 17:24:00,
2013-03-04 12:25:00,40.5,19.2,29.73,West,278,6.0,26.0,42,0.00,,,0.00,VWS V14.01,2013-03-04 17:25:00,
2013-03-04 12:26:00,40.5,19.2,29.73,WNW,303,12.0,26.0,42,0.00,,,0.00,VWS V14.01,2013-03-04 17:26:00,
2013-03-04 12:31:00,40.1,18.9,29.73,WNW,300,24.0,26.0,42,0.00,,,0.00,VWS V14.01,2013-03-04 17:31:00,
2013-03-04 12:32:00,40.1,19.4,29.73,NW,305,22.0,26.0,43,0.00,,,0.00,VWS V14.01,2013-03-04 17:32:00,
2013-03-04 12:33:00,40.1,18.9,29.73,WNW,292,10.0,26.0,42,0.00,,,0.00,VWS V14.01,2013-03-04 17:33:00,
2013-03-04 12:37:00,40.2,19.0,29.73,WNW,284,6.0,24.0,42,0.00,,,0.00,VWS V14.01,2013-03-04 17:37:00,
2013-03-04 12:38:00,40.3,19.0,29.73,West,265,10.0,24.0,42,0.00,,,0.00,VWS V14.01,2013-03-04 17:38:00,
2013-03-04 12:39:00,40.5,19.2,29.73,WNW,288,14.0,24.0,42,0.00,,,0.00,VWS V14.01,2013-03-04 17:39:00,
2013-03-04 12:43:00,41.2,19.3,29.73,West,277,18.0,24.0,41,0.00,,,0.00,VWS V14.01,2013-03-04 17:43:00,
2013-03-04 12:44:00,41.1,19.2,29.73,WNW,286,19.0,24.0,41,0.00,,,0.00,VWS V14.01,2013-03-04 17:44:00,
2013-03-04 12:45:00,41.1,18.6,29.73,WNW,301,15.0,24.0,40,0.00,,,0.00,VWS V14.01,2013-03-04 17:45:00,
2013-03-04 12:47:00,40.8,19.5,29.73,WNW,290,13.0,25.0,42,0.00,,,0.00,VWS V14.01,2013-03-04 17:47:00,
2013-03-04 12:51:00,41.2,19.3,29.73,NW,305,11.0,25.0,41,0.00,,,0.00,VWS V14.01,2013-03-04 17:51:00,
2013-03-04 12:52:00,41.3,19.4,29.73,NW,319,10.0,25.0,41,0.00,,,0.00,VWS V14.01,2013-03-04 17:52:00,
2013-03-04 12:54:00,41.2,19.3,29.73,WNW,294,9.0,25.0,41,0.00,,,0.00,VWS V14.01,2013-03-04 17:54:00,
2013-03-04 12:57:00,41.5,19.6,29.73,NW,312,18.0,29.0,41,0.00,,,0.00,VWS V14.01,2013-03-04 17:57:00,
2013-03-04 12:59:00,41.3,18.8,29.73,WNW,284,13.0,29.0,40,0.00,,,0.00,VWS V14.01,2013-03-04 17:59:00,
2013-03-04 13:00:00,41.3,18.8,29.73,West,279,14.0,29.0,40,0.00,,,0.00,VWS V14.01,2013-03-04 18:00:00,
2013-03-04 13:03:00,41.3,19.4,29.72,SW,235,3.0,29.0,41,0.00,,,0.00,VWS V14.01,2013-03-04 18:03:00,
2013-03-04 13:05:00,41.8,19.8,29.72,West,279,10.0,20.0,41,0.00,,,0.00,VWS V14.01,2013-03-04 18:05:00,
2013-03-04 13:09:00,41.8,19.3,29.72,NW,309,3.0,20.0,40,0.00,,,0.00,VWS V14.01,2013-03-04 18:09:00,
2013-03-04 13:10:00,41.9,19.9,29.72,WNW,285,7.0,20.0,41,0.00,,,0.00,VWS V14.01,2013-03-04 18:10:00,
2013-03-04 13:14:00,42.6,19.4,29.72,West,278,16.0,20.0,39,0.00,,,0.00,VWS V14.01,2013-03-04 18:14:00,
2013-03-04 13:15:00,42.6,19.4,29.72,WNW,285,8.0,20.0,39,0.00,,,0.00,VWS V14.01,2013-03-04 18:15:00,
2013-03-04 13:16:00,42.5,19.3,29.72,WNW,287,10.0,24.0,39,0.00,,,0.00,VWS V14.01,2013-03-04 18:16:00,
2013-03-04 13:19:00,42.5,19.3,29.72,NW,309,16.0,24.0,39,0.00,,,0.00,VWS V14.01,2013-03-04 18:19:00,
2013-03-04 13:22:00,42.1,19.0,29.72,NNW,342,15.0,25.0,39,0.00,,,0.00,VWS V14.01,2013-03-04 18:22:00,
2013-03-04 13:27:00,42.1,19.5,29.72,NW,321,11.0,25.0,40,0.00,,,0.00,VWS V14.01,2013-03-04 18:27:00,
2013-03-04 13:30:00,42.3,19.1,29.72,NW,323,19.0,25.0,39,0.00,,,0.00,VWS V14.01,2013-03-04 18:30:00,
2013-03-04 13:32:00,42.1,19.0,29.72,WNW,293,13.0,26.0,39,0.00,,,0.00,VWS V14.01,2013-03-04 18:32:00,
2013-03-04 13:36:00,41.9,18.8,29.71,WNW,287,30.0,30.0,39,0.00,,,0.00,VWS V14.01,2013-03-04 18:36:00,
2013-03-04 13:37:00,41.9,18.8,29.71,NW,310,11.0,30.0,39,0.00,,,0.00,VWS V14.01,2013-03-04 18:37:00,
2013-03-04 13:38:00,41.9,18.8,29.71,NW,307,20.0,30.0,39,0.00,,,0.00,VWS V14.01,2013-03-04 18:38:00,
2013-03-04 13:43:00,42.1,19.0,29.71,West,269,6.0,30.0,39,0.00,,,0.00,VWS V14.01,2013-03-04 18:43:00,
2013-03-04 13:45:00,42.2,19.0,29.71,WNW,298,12.0,30.0,39,0.00,,,0.00,VWS V14.01,2013-03-04 18:45:00,
2013-03-04 13:46:00,42.2,19.0,29.71,NW,307,9.0,30.0,39,0.00,,,0.00,VWS V14.01,2013-03-04 18:46:00,
2013-03-04 13:50:00,42.9,19.7,29.71,NW,305,5.0,30.0,39,0.00,,,0.00,VWS V14.01,2013-03-04 18:50:00,
2013-03-04 13:52:00,43.1,19.2,29.71,WNW,290,15.0,30.0,38,0.00,,,0.00,VWS V14.01,2013-03-04 18:52:00,
2013-03-04 13:55:00,43.2,19.3,29.71,WNW,292,24.0,30.0,38,0.00,,,0.00,VWS V14.01,2013-03-04 18:55:00,
2013-03-04 13:59:00,42.9,19.1,29.71,WNW,290,17.0,30.0,38,0.00,,,0.00,VWS V14.01,2013-03-04 18:59:00,
2013-03-04 14:01:00,42.8,19.6,29.71,West,267,14.0,30.0,39,0.00,,,0.00,VWS V14.01,2013-03-04 19:01:00,
2013-03-04 14:03:00,42.8,19.6,29.71,NNW,334,9.0,30.0,39,0.00,,,0.00,VWS V14.01,2013-03-04 19:03:00,
2013-03-04 14:06:00,42.6,19.4,29.71,NW,311,24.0,24.0,39,0.00,,,0.00,VWS V14.01,2013-03-04 19:06:00,
2013-03-04 14:08:00,42.6,19.4,29.71,WNW,301,18.0,25.0,39,0.00,,,0.00,VWS V14.01,2013-03-04 19:08:00,
2013-03-04 14:13:00,42.6,18.8,29.71,NNW,338,18.0,27.0,38,0.00,,,0.00,VWS V14.01,2013-03-04 19:13:00,
2013-03-04 14:14:00,42.5,19.3,29.71,NW,321,2.0,27.0,39,0.00,,,0.00,VWS V14.01,2013-03-04 19:14:00,
2013-03-04 14:19:00,42.6,18.8,29.71,WNW,291,6.0,27.0,38,0.00,,,0.00,VWS V14.01,2013-03-04 19:19:00,
2013-03-04 14:21:00,42.6,19.4,29.71,WNW,283,5.0,27.0,39,0.00,,,0.00,VWS V14.01,2013-03-04 19:21:00,
2013-03-04 14:22:00,42.8,19.6,29.71,West,260,9.0,27.0,39,0.00,,,0.00,VWS V14.01,2013-03-04 19:22:00,
2013-03-04 14:24:00,42.9,19.7,29.71,NW,313,11.0,27.0,39,0.00,,,0.00,VWS V14.01,2013-03-04 19:24:00,
2013-03-04 14:27:00,42.9,19.7,29.71,WNW,297,13.0,27.0,39,0.00,,,0.00,VWS V14.01,2013-03-04 19:27:00,
2013-03-04 14:29:00,42.9,19.1,29.71,WNW,285,22.0,27.0,38,0.00,,,0.00,VWS V14.01,2013-03-04 19:29:00,
2013-03-04 14:32:00,42.9,19.7,29.71,West,279,10.0,27.0,39,0.00,,,0.00,VWS V14.01,2013-03-04 19:32:00,
2013-03-04 14:33:00,42.9,19.7,29.70,West,261,12.0,27.0,39,0.00,,,0.00,VWS V14.01,2013-03-04 19:33:00,
2013-03-04 14:38:00,42.9,19.7,29.70,NW,326,19.0,26.0,39,0.00,,,0.00,VWS V14.01,2013-03-04 19:38:00,
2013-03-04 14:39:00,42.9,19.1,29.70,NW,309,17.0,26.0,38,0.00,,,0.00,VWS V14.01,2013-03-04 19:39:00,
2013-03-04 14:42:00,42.8,19.6,29.70,West,273,10.0,26.0,39,0.00,,,0.00,VWS V14.01,2013-03-04 19:42:00,
2013-03-04 14:47:00,42.8,19.6,29.70,WSW,243,16.0,26.0,39,0.00,,,0.00,VWS V14.01,2013-03-04 19:47:00,
2013-03-04 14:48:00,42.8,19.6,29.71,West,265,18.0,26.0,39,0.00,,,0.00,VWS V14.01,2013-03-04 19:48:00,
2013-03-04 14:53:00,42.6,19.4,29.71,SW,219,11.0,26.0,39,0.00,,,0.00,VWS V14.01,2013-03-04 19:53:00,
2013-03-04 14:54:00,42.8,19.6,29.71,West,262,19.0,26.0,39,0.00,,,0.00,VWS V14.01,2013-03-04 19:54:00,
2013-03-04 14:57:00,42.9,19.7,29.71,NW,310,22.0,26.0,39,0.00,,,0.00,VWS V14.01,2013-03-04 19:57:00,
2013-03-04 15:01:00,42.9,19.7,29.71,NW,319,14.0,26.0,39,0.00,,,0.00,VWS V14.01,2013-03-04 20:01:00,
2013-03-04 15:03:00,42.6,19.4,29.72,NW,321,10.0,26.0,39,0.00,,,0.00,VWS V14.01,2013-03-04 20:03:00,
2013-03-04 15:08:00,42.5,19.9,29.72,West,273,14.0,24.0,40,0.00,,,0.00,VWS V14.01,2013-03-04 20:08:00,
2013-03-04 15:09:00,42.5,19.3,29.72,WNW,303,20.0,24.0,39,0.00,,,0.00,VWS V14.01,2013-03-04 20:09:00,
2013-03-04 15:11:00,42.6,20.0,29.72,West,279,13.0,24.0,40,0.00,,,0.00,VWS V14.01,2013-03-04 20:11:00,
2013-03-04 15:13:00,42.6,19.4,29.72,West,264,7.0,24.0,39,0.00,,,0.00,VWS V14.01,2013-03-04 20:13:00,
2013-03-04 15:16:00,42.6,20.0,29.72,WNW,303,17.0,25.0,40,0.00,,,0.00,VWS V14.01,2013-03-04 20:16:00,
2013-03-04 15:21:00,42.9,19.7,29.71,WNW,292,20.0,25.0,39,0.00,,,0.00,VWS V14.01,2013-03-04 20:21:00,
2013-03-04 15:22:00,42.9,19.7,29.71,West,277,13.0,25.0,39,0.00,,,0.00,VWS V14.01,2013-03-04 20:22:00,
2013-03-04 15:26:00,42.9,19.7,29.71,West,263,7.0,25.0,39,0.00,,,0.00,VWS V14.01,2013-03-04 20:26:00,
2013-03-04 15:27:00,42.9,19.7,29.71,WNW,297,4.0,25.0,39,0.00,,,0.00,VWS V14.01,2013-03-04 20:27:00,
2013-03-04 15:32:00,42.8,19.6,29.71,WNW,288,14.0,25.0,39,0.00,,,0.00,VWS V14.01,2013-03-04 20:32:00,
2013-03-04 15:33:00,42.8,19.6,29.71,West,274,7.0,25.0,39,0.00,,,0.00,VWS V14.01,2013-03-04 20:33:00,
2013-03-04 15:34:00,42.8,20.2,29.71,WNW,282,6.0,16.0,40,0.00,,,0.00,VWS V14.01,2013-03-04 20:34:00,
2013-03-04 15:36:00,42.8,19.6,29.71,WNW,302,19.0,19.0,39,0.00,,,0.00,VWS V14.01,2013-03-04 20:36:00,
2013-03-04 15:38:00,42.8,19.6,29.71,NW,306,13.0,19.0,39,0.00,,,0.00,VWS V14.01,2013-03-04 20:38:00,
2013-03-04 15:44:00,42.5,19.9,29.71,NW,313,14.0,26.0,40,0.00,,,0.00,VWS V14.01,2013-03-04 20:44:00,
2013-03-04 15:47:00,42.3,19.1,29.71,WNW,287,11.0,26.0,39,0.00,,,0.00,VWS V14.01,2013-03-04 20:47:00,
2013-03-04 15:49:00,42.2,19.6,29.72,NW,311,16.0,26.0,40,0.00,,,0.00,VWS V14.01,2013-03-04 20:49:00,
2013-03-04 15:52:00,42.2,19.6,29.72,NNW,332,11.0,26.0,40,0.00,,,0.00,VWS V14.01,2013-03-04 20:52:00,
2013-03-04 15:54:00,42.2,19.6,29.72,West,281,10.0,26.0,40,0.00,,,0.00,VWS V14.01,2013-03-04 20:54:00,
2013-03-04 15:55:00,42.3,19.7,29.72,WNW,294,20.0,26.0,40,0.00,,,0.00,VWS V14.01,2013-03-04 20:55:00,
2013-03-04 15:59:00,42.2,19.6,29.72,WNW,291,5.0,26.0,40,0.00,,,0.00,VWS V14.01,2013-03-04 20:59:00,
2013-03-04 16:01:00,42.2,19.0,29.72,NW,309,13.0,29.0,39,0.00,,,0.00,VWS V14.01,2013-03-04 21:01:00,
2013-03-04 16:03:00,42.1,19.5,29.72,NNE,13,4.0,29.0,40,0.00,,,0.00,VWS V14.01,2013-03-04 21:03:00,
2013-03-04 16:05:00,42.1,19.5,29.72,NW,317,18.0,24.0,40,0.00,,,0.00,VWS V14.01,2013-03-04 21:05:00,
2013-03-04 16:07:00,41.9,19.4,29.72,WNW,302,14.0,32.0,40,0.00,,,0.00,VWS V14.01,2013-03-04 21:07:00,
2013-03-04 16:10:00,41.9,19.4,29.72,West,267,7.0,32.0,40,0.00,,,0.00,VWS V14.01,2013-03-04 21:10:00,
2013-03-04 16:13:00,42.2,19.6,29.72,NW,304,14.0,32.0,40,0.00,,,0.00,VWS V14.01,2013-03-04 21:13:00,
2013-03-04 16:15:00,42.2,19.6,29.72,WNW,287,8.0,32.0,40,0.00,,,0.00,VWS V14.01,2013-03-04 21:15:00,
2013-03-04 16:19:00,42.1,19.5,29.72,NW,309,8.0,32.0,40,0.00,,,0.00,VWS V14.01,2013-03-04 21:19:00,
2013-03-04 16:20:00,42.1,19.5,29.72,WNW,299,14.0,32.0,40,0.00,,,0.00,VWS V14.01,2013-03-04 21:20:00,
2013-03-04 16:23:00,42.2,19.6,29.72,West,271,13.0,32.0,40,0.00,,,0.00,VWS V14.01,2013-03-04 21:23:00,
2013-03-04 16:24:00,42.1,19.5,29.72,West,281,13.0,32.0,40,0.00,,,0.00,VWS V14.01,2013-03-04 21:24:00,
2013-03-04 16:26:00,42.1,19.5,29.72,NW,307,16.0,32.0,40,0.00,,,0.00,VWS V14.01,2013-03-04 21:26:00,
2013-03-04 16:29:00,42.1,19.5,29.72,WNW,294,16.0,32.0,40,0.00,,,0.00,VWS V14.01,2013-03-04 21:29:00,
2013-03-04 16:32:00,42.1,19.5,29.72,WNW,282,7.0,32.0,40,0.00,,,0.00,VWS V14.01,2013-03-04 21:32:00,
2013-03-04 16:33:00,42.2,19.6,29.72,North,5,5.0,32.0,40,0.00,,,0.00,VWS V14.01,2013-03-04 21:33:00,
2013-03-04 16:34:00,42.2,19.6,29.72,WNW,299,10.0,18.0,40,0.00,,,0.00,VWS V14.01,2013-03-04 21:34:00,
2013-03-04 16:37:00,42.1,19.0,29.72,NW,307,15.0,21.0,39,0.00,,,0.00,VWS V14.01,2013-03-04 21:37:00,
2013-03-04 16:39:00,42.1,19.0,29.72,WSW,254,5.0,23.0,39,0.00,,,0.00,VWS V14.01,2013-03-04 21:39:00,
2013-03-04 16:40:00,41.9,18.8,29.72,NW,313,5.0,23.0,39,0.00,,,0.00,VWS V14.01,2013-03-04 21:40:00,
2013-03-04 16:42:00,41.9,18.8,29.72,NW,313,18.0,23.0,39,0.00,,,0.00,VWS V14.01,2013-03-04 21:42:00,
2013-03-04 16:44:00,41.9,18.8,29.72,NW,317,8.0,23.0,39,0.00,,,0.00,VWS V14.01,2013-03-04 21:44:00,
2013-03-04 16:46:00,41.9,19.4,29.72,WNW,302,20.0,23.0,40,0.00,,,0.00,VWS V14.01,2013-03-04 21:46:00,
2013-03-04 16:47:00,41.9,19.4,29.72,WNW,302,4.0,23.0,40,0.00,,,0.00,VWS V14.01,2013-03-04 21:47:00,
2013-03-04 16:48:00,41.9,19.4,29.73,NW,310,14.0,23.0,40,0.00,,,0.00,VWS V14.01,2013-03-04 21:48:00,
2013-03-04 16:51:00,41.9,19.4,29.73,WNW,290,16.0,23.0,40,0.00,,,0.00,VWS V14.01,2013-03-04 21:51:00,
2013-03-04 16:55:00,41.8,19.3,29.73,NW,304,7.0,23.0,40,0.00,,,0.00,VWS V14.01,2013-03-04 21:55:00,
2013-03-04 16:56:00,41.8,19.3,29.73,NW,325,9.0,23.0,40,0.00,,,0.00,VWS V14.01,2013-03-04 21:56:00,
2013-03-04 16:59:00,41.8,19.3,29.73,WNW,283,15.0,23.0,40,0.00,,,0.00,VWS V14.01,2013-03-04 21:59:00,
2013-03-04 17:00:00,41.8,19.3,29.73,NNW,334,14.0,23.0,40,0.00,,,0.00,VWS V14.01,2013-03-04 22:00:00,
2013-03-04 17:01:00,41.8,19.3,29.73,NNW,333,8.0,23.0,40,0.00,,,0.00,VWS V14.01,2013-03-04 22:01:00,
2013-03-04 17:04:00,41.8,19.3,29.73,NNW,327,4.0,12.0,40,0.00,,,0.00,VWS V14.01,2013-03-04 22:04:00,
2013-03-04 17:05:00,41.8,19.8,29.73,NW,314,12.0,14.0,41,0.00,,,0.00,VWS V14.01,2013-03-04 22:05:00,
2013-03-04 17:06:00,41.8,19.3,29.73,NW,317,7.0,14.0,40,0.00,,,0.00,VWS V14.01,2013-03-04 22:06:00,
2013-03-04 17:09:00,41.6,19.1,29.73,NW,320,8.0,20.0,40,0.00,,,0.00,VWS V14.01,2013-03-04 22:09:00,
2013-03-04 17:11:00,41.6,19.1,29.73,NW,311,1.0,20.0,40,0.00,,,0.00,VWS V14.01,2013-03-04 22:11:00,
2013-03-04 17:15:00,41.6,19.1,29.73,NW,309,4.0,20.0,40,0.00,,,0.00,VWS V14.01,2013-03-04 22:15:00,
2013-03-04 17:16:00,41.6,19.1,29.73,NW,317,8.0,20.0,40,0.00,,,0.00,VWS V14.01,2013-03-04 22:16:00,
2013-03-04 17:21:00,41.5,19.6,29.74,WNW,291,7.0,20.0,41,0.00,,,0.00,VWS V14.01,2013-03-04 22:21:00,
2013-03-04 17:25:00,41.5,19.6,29.74,West,263,0.0,20.0,41,0.00,,,0.00,VWS V14.01,2013-03-04 22:25:00,
2013-03-04 17:26:00,41.5,19.6,29.74,WNW,300,6.0,20.0,41,0.00,,,0.00,VWS V14.01,2013-03-04 22:26:00,
2013-03-04 17:27:00,41.5,19.6,29.74,WNW,294,6.0,20.0,41,0.00,,,0.00,VWS V14.01,2013-03-04 22:27:00,
2013-03-04 17:30:00,41.5,19.6,29.74,North,355,2.0,20.0,41,0.00,,,0.00,VWS V14.01,2013-03-04 22:30:00,
2013-03-04 17:32:00,41.3,18.8,29.74,NW,308,12.0,20.0,40,0.00,,,0.00,VWS V14.01,2013-03-04 22:32:00,
2013-03-04 17:33:00,41.3,19.4,29.75,West,277,2.0,20.0,41,0.00,,,0.00,VWS V14.01,2013-03-04 22:33:00,
2013-03-04 17:36:00,41.3,19.4,29.75,WNW,282,8.0,11.0,41,0.00,,,0.00,VWS V14.01,2013-03-04 22:36:00,
2013-03-04 17:37:00,41.3,19.4,29.75,WNW,286,0.0,11.0,41,0.00,,,0.00,VWS V14.01,2013-03-04 22:37:00,
2013-03-04 17:42:00,41.2,18.7,29.75,WNW,298,14.0,18.0,40,0.00,,,0.00,VWS V14.01,2013-03-04 22:42:00,
2013-03-04 17:44:00,41.2,18.7,29.75,West,275,8.0,18.0,40,0.00,,,0.00,VWS V14.01,2013-03-04 22:44:00,
2013-03-04 17:45:00,41.2,18.7,29.75,WNW,303,3.0,18.0,40,0.00,,,0.00,VWS V14.01,2013-03-04 22:45:00,
2013-03-04 17:46:00,41.2,18.7,29.75,NNW,346,8.0,18.0,40,0.00,,,0.00,VWS V14.01,2013-03-04 22:46:00,
2013-03-04 17:47:00,41.2,18.7,29.75,NNW,329,18.0,21.0,40,0.00,,,0.00,VWS V14.01,2013-03-04 22:47:00,
2013-03-04 17:50:00,41.1,18.6,29.75,NW,325,8.0,21.0,40,0.00,,,0.00,VWS V14.01,2013-03-04 22:50:00,
2013-03-04 17:53:00,40.9,18.5,29.75,NW,321,10.0,21.0,40,0.00,,,0.00,VWS V14.01,2013-03-04 22:53:00,
2013-03-04 17:55:00,40.9,19.0,29.75,NW,311,11.0,21.0,41,0.00,,,0.00,VWS V14.01,2013-03-04 22:55:00,
2013-03-04 17:56:00,40.9,18.5,29.75,WNW,300,7.0,21.0,40,0.00,,,0.00,VWS V14.01,2013-03-04 22:56:00,
2013-03-04 17:59:00,40.8,18.9,29.75,WNW,286,4.0,21.0,41,0.00,,,0.00,VWS V14.01,2013-03-04 22:59:00,
2013-03-04 18:00:00,40.8,18.9,29.75,NW,309,11.0,21.0,41,0.00,,,0.00,VWS V14.01,2013-03-04 23:00:00,
2013-03-04 18:03:00,40.6,18.8,29.76,NW,321,5.0,21.0,41,0.00,,,0.00,VWS V14.01,2013-03-04 23:03:00,
2013-03-04 18:04:00,40.6,18.8,29.76,NNW,340,7.0,7.0,41,0.00,,,0.00,VWS V14.01,2013-03-04 23:04:00,
2013-03-04 18:05:00,40.6,18.8,29.76,NW,323,5.0,10.0,41,0.00,,,0.00,VWS V14.01,2013-03-04 23:05:00,
2013-03-04 18:10:00,40.5,19.2,29.76,NNW,331,5.0,11.0,42,0.00,,,0.00,VWS V14.01,2013-03-04 23:10:00,
2013-03-04 18:15:00,40.2,19.0,29.76,NNW,327,4.0,13.0,42,0.00,,,0.00,VWS V14.01,2013-03-04 23:15:00,
2013-03-04 18:20:00,40.1,18.9,29.76,NW,313,8.0,15.0,42,0.00,,,0.00,VWS V14.01,2013-03-04 23:20:00,
2013-03-04 18:21:00,40.1,18.9,29.76,West,281,7.0,15.0,42,0.00,,,0.00,VWS V14.01,2013-03-04 23:21:00,
2013-03-04 18:25:00,39.9,18.7,29.76,NW,317,8.0,15.0,42,0.00,,,0.00,VWS V14.01,2013-03-04 23:25:00,
2013-03-04 18:26:00,39.9,18.7,29.76,NW,304,5.0,15.0,42,0.00,,,0.00,VWS V14.01,2013-03-04 23:26:00,
2013-03-04 18:27:00,39.9,18.7,29.76,NW,311,2.0,15.0,42,0.00,,,0.00,VWS V14.01,2013-03-04 23:27:00,
2013-03-04 18:29:00,39.9,19.2,29.76,NNW,329,12.0,15.0,43,0.00,,,0.00,VWS V14.01,2013-03-04 23:29:00,
2013-03-04 18:31:00,39.8,18.6,29.76,NW,308,4.0,15.0,42,0.00,,,0.00,VWS V14.01,2013-03-04 23:31:00,
2013-03-04 18:36:00,39.6,18.4,29.77,NW,304,9.0,18.0,42,0.00,,,0.00,VWS V14.01,2013-03-04 23:36:00,
2013-03-04 18:40:00,39.6,19.0,29.77,West,280,9.0,18.0,43,0.00,,,0.00,VWS V14.01,2013-03-04 23:40:00,
2013-03-04 18:43:00,39.5,18.9,29.77,NW,324,14.0,19.0,43,0.00,,,0.00,VWS V14.01,2013-03-04 23:43:00,
2013-03-04 18:48:00,39.5,18.3,29.78,NW,325,12.0,19.0,42,0.00,,,0.00,VWS V14.01,2013-03-04 23:48:00,
2013-03-04 18:49:00,39.5,18.9,29.78,NW,324,10.0,19.0,43,0.00,,,0.00,VWS V14.01,2013-03-04 23:49:00,
2013-03-04 18:51:00,39.3,18.7,29.78,NNW,328,9.0,19.0,43,0.00,,,0.00,VWS V14.01,2013-03-04 23:51:00,
2013-03-04 18:53:00,39.3,18.7,29.78,NW,309,9.0,22.0,43,0.00,,,0.00,VWS V14.01,2013-03-04 23:53:00,
2013-03-04 18:56:00,39.2,18.6,29.78,NW,325,16.0,22.0,43,0.00,,,0.00,VWS V14.01,2013-03-04 23:56:00,
2013-03-04 19:00:00,39.1,18.5,29.78,NNW,327,9.0,22.0,43,0.00,,,0.00,VWS V14.01,2013-03-05 00:00:00,
2013-03-04 19:01:00,39.1,18.5,29.78,NW,306,6.0,22.0,43,0.00,,,0.00,VWS V14.01,2013-03-05 00:01:00,
2013-03-04 19:03:00,38.9,18.3,29.79,WNW,288,13.0,22.0,43,0.00,,,0.00,VWS V14.01,2013-03-05 00:03:00,
2013-03-04 19:04:00,38.9,18.3,29.79,NNW,332,18.0,19.0,43,0.00,,,0.00,VWS V14.01,2013-03-05 00:04:00,
2013-03-04 19:08:00,38.8,18.2,29.79,NW,313,9.0,19.0,43,0.00,,,0.00,VWS V14.01,2013-03-05 00:08:00,
2013-03-04 19:10:00,38.8,18.2,29.79,WNW,299,9.0,19.0,43,0.00,,,0.00,VWS V14.01,2013-03-05 00:10:00,
2013-03-04 19:12:00,38.6,18.6,29.79,NNW,345,0.0,19.0,44,0.00,,,0.00,VWS V14.01,2013-03-05 00:12:00,
2013-03-04 19:17:00,38.5,18.5,29.79,NW,321,9.0,19.0,44,0.00,,,0.00,VWS V14.01,2013-03-05 00:17:00,
2013-03-04 19:18:00,38.5,18.5,29.79,NNW,348,7.0,19.0,44,0.00,,,0.00,VWS V14.01,2013-03-05 00:18:00,
2013-03-04 19:22:00,38.3,18.3,29.79,West,281,7.0,19.0,44,0.00,,,0.00,VWS V14.01,2013-03-05 00:22:00,
2013-03-04 19:24:00,38.3,18.3,29.79,WNW,294,13.0,19.0,44,0.00,,,0.00,VWS V14.01,2013-03-05 00:24:00,
2013-03-04 19:25:00,38.3,18.3,29.79,NNW,327,10.0,19.0,44,0.00,,,0.00,VWS V14.01,2013-03-05 00:25:00,
2013-03-04 19:30:00,38.2,18.2,29.79,NNW,340,5.0,24.0,44,0.00,,,0.00,VWS V14.01,2013-03-05 00:30:00,
2013-03-04 19:31:00,38.2,18.2,29.79,NW,312,12.0,24.0,44,0.00,,,0.00,VWS V14.01,2013-03-05 00:31:00,
2013-03-04 19:35:00,38.0,18.6,29.80,WNW,286,7.0,16.0,45,0.00,,,0.00,VWS V14.01,2013-03-05 00:35:00,
2013-03-04 19:37:00,38.0,18.6,29.80,NW,314,21.0,21.0,45,0.00,,,0.00,VWS V14.01,2013-03-05 00:37:00,
2013-03-04 19:38:00,37.9,18.5,29.80,NW,304,18.0,21.0,45,0.00,,,0.00,VWS V14.01,2013-03-05 00:38:00,
2013-03-04 19:39:00,37.9,18.5,29.80,NNW,336,11.0,21.0,45,0.00,,,0.00,VWS V14.01,2013-03-05 00:39:00,
2013-03-04 19:40:00,37.9,18.5,29.80,WNW,298,10.0,21.0,45,0.00,,,0.00,VWS V14.01,2013-03-05 00:40:00,
2013-03-04 19:44:00,37.8,18.4,29.80,NW,306,14.0,23.0,45,0.00,,,0.00,VWS V14.01,2013-03-05 00:44:00,
2013-03-04 19:47:00,37.6,18.2,29.80,WNW,302,15.0,23.0,45,0.00,,,0.00,VWS V14.01,2013-03-05 00:47:00,
2013-03-04 19:49:00,37.5,18.1,29.80,NW,307,21.0,23.0,45,0.00,,,0.00,VWS V14.01,2013-03-05 00:49:00,
2013-03-04 19:52:00,37.5,18.6,29.80,NW,325,10.0,23.0,46,0.00,,,0.00,VWS V14.01,2013-03-05 00:52:00,
2013-03-04 19:56:00,37.3,18.4,29.80,WNW,299,9.0,23.0,46,0.00,,,0.00,VWS V14.01,2013-03-05 00:56:00,
2013-03-04 20:00:00,37.2,18.3,29.80,NW,326,6.0,23.0,46,0.00,,,0.00,VWS V14.01,2013-03-05 01:00:00,
2013-03-04 20:01:00,37.2,18.3,29.80,NNW,340,15.0,23.0,46,0.00,,,0.00,VWS V14.01,2013-03-05 01:01:00,
2013-03-04 20:03:00,37.0,18.2,29.81,WNW,298,12.0,23.0,46,0.00,,,0.00,VWS V14.01,2013-03-05 01:03:00,
2013-03-04 20:06:00,37.0,18.2,29.81,NW,313,16.0,18.0,46,0.00,,,0.00,VWS V14.01,2013-03-05 01:06:00,
2013-03-04 20:09:00,37.0,18.2,29.81,NW,307,10.0,19.0,46,0.00,,,0.00,VWS V14.01,2013-03-05 01:09:00,
2013-03-04 20:10:00,36.9,18.1,29.81,NW,304,9.0,19.0,46,0.00,,,0.00,VWS V14.01,2013-03-05 01:10:00,
2013-03-04 20:12:00,36.9,18.6,29.81,WNW,296,4.0,19.0,47,0.00,,,0.00,VWS V14.01,2013-03-05 01:12:00,
2013-03-04 20:15:00,36.8,18.5,29.81,NW,311,16.0,19.0,47,0.00,,,0.00,VWS V14.01,2013-03-05 01:15:00,
2013-03-04 20:17:00,36.8,18.5,29.81,WNW,286,13.0,19.0,47,0.00,,,0.00,VWS V14.01,2013-03-05 01:17:00,
2013-03-04 20:20:00,36.6,18.3,29.82,West,280,18.0,19.0,47,0.00,,,0.00,VWS V14.01,2013-03-05 01:20:00,
2013-03-04 20:24:00,36.6,18.3,29.82,West,276,14.0,22.0,47,0.00,,,0.00,VWS V14.01,2013-03-05 01:24:00,
2013-03-04 20:25:00,36.6,18.3,29.82,NNW,348,10.0,22.0,47,0.00,,,0.00,VWS V14.01,2013-03-05 01:25:00,
2013-03-04 20:28:00,36.5,18.7,29.82,NNW,329,10.0,22.0,48,0.00,,,0.00,VWS V14.01,2013-03-05 01:28:00,
2013-03-04 20:30:00,36.5,18.7,29.82,NNW,327,11.0,22.0,48,0.00,,,0.00,VWS V14.01,2013-03-05 01:30:00,
2013-03-04 20:33:00,36.3,18.5,29.82,NW,315,12.0,22.0,48,0.00,,,0.00,VWS V14.01,2013-03-05 01:33:00,
2013-03-04 20:35:00,36.3,18.5,29.82,WNW,302,10.0,18.0,48,0.00,,,0.00,VWS V14.01,2013-03-05 01:35:00,
2013-03-04 20:38:00,36.3,18.5,29.82,WNW,289,9.0,21.0,48,0.00,,,0.00,VWS V14.01,2013-03-05 01:38:00,
2013-03-04 20:39:00,36.3,18.5,29.82,NW,317,7.0,21.0,48,0.00,,,0.00,VWS V14.01,2013-03-05 01:39:00,
2013-03-04 20:41:00,36.2,18.4,29.82,NW,311,6.0,21.0,48,0.00,,,0.00,VWS V14.01,2013-03-05 01:41:00,
2013-03-04 20:46:00,36.2,18.4,29.82,NW,323,11.0,21.0,48,0.00,,,0.00,VWS V14.01,2013-03-05 01:46:00,
2013-03-04 20:48:00,36.0,18.7,29.82,NNW,338,1.0,21.0,49,0.00,,,0.00,VWS V14.01,2013-03-05 01:48:00,
2013-03-04 20:50:00,36.0,18.7,29.82,NW,325,8.0,21.0,49,0.00,,,0.00,VWS V14.01,2013-03-05 01:50:00,
2013-03-04 20:51:00,36.0,18.7,29.82,WNW,300,10.0,21.0,49,0.00,,,0.00,VWS V14.01,2013-03-05 01:51:00,
2013-03-04 20:55:00,36.0,18.7,29.82,WNW,295,3.0,21.0,49,0.00,,,0.00,VWS V14.01,2013-03-05 01:55:00,
2013-03-04 20:56:00,36.0,18.7,29.82,WNW,298,11.0,21.0,49,0.00,,,0.00,VWS V14.01,2013-03-05 01:56:00,
2013-03-04 20:59:00,35.9,18.6,29.82,NW,307,16.0,21.0,49,0.00,,,0.00,VWS V14.01,2013-03-05 01:59:00,
2013-03-04 21:01:00,35.9,18.6,29.82,NW,309,10.0,21.0,49,0.00,,,0.00,VWS V14.01,2013-03-05 02:01:00,
2013-03-04 21:02:00,35.9,18.6,29.82,NW,312,7.0,21.0,49,0.00,,,0.00,VWS V14.01,2013-03-05 02:02:00,
2013-03-04 21:05:00,35.9,18.6,29.82,NNW,331,10.0,15.0,49,0.00,,,0.00,VWS V14.01,2013-03-05 02:05:00,
2013-03-04 21:10:00,35.8,19.0,29.82,NW,317,11.0,15.0,50,0.00,,,0.00,VWS V14.01,2013-03-05 02:10:00,
2013-03-04 21:14:00,35.6,18.8,29.82,NNW,327,13.0,17.0,50,0.00,,,0.00,VWS V14.01,2013-03-05 02:14:00,
2013-03-04 21:15:00,35.6,18.8,29.82,NW,311,11.0,17.0,50,0.00,,,0.00,VWS V14.01,2013-03-05 02:15:00,
2013-03-04 21:16:00,35.6,18.8,29.82,WNW,298,12.0,17.0,50,0.00,,,0.00,VWS V14.01,2013-03-05 02:16:00,
2013-03-04 21:18:00,35.6,19.3,29.82,NNW,342,14.0,17.0,51,0.00,,,0.00,VWS V14.01,2013-03-05 02:18:00,
2013-03-04 21:21:00,35.6,19.3,29.82,WNW,302,0.0,17.0,51,0.00,,,0.00,VWS V14.01,2013-03-05 02:21:00,
2013-03-04 21:23:00,35.6,19.3,29.82,NW,305,12.0,17.0,51,0.00,,,0.00,VWS V14.01,2013-03-05 02:23:00,
2013-03-04 21:24:00,35.6,19.3,29.82,NW,309,9.0,17.0,51,0.00,,,0.00,VWS V14.01,2013-03-05 02:24:00,
2013-03-04 21:27:00,35.6,19.3,29.82,NNW,336,7.0,18.0,51,0.00,,,0.00,VWS V14.01,2013-03-05 02:27:00,
2013-03-04 21:32:00,35.6,19.3,29.82,NW,304,13.0,20.0,51,0.00,,,0.00,VWS V14.01,2013-03-05 02:32:00,
2013-03-04 21:33:00,35.6,19.3,29.82,NW,306,7.0,20.0,51,0.00,,,0.00,VWS V14.01,2013-03-05 02:33:00,
2013-03-04 21:37:00,35.6,19.3,29.82,NNW,333,4.0,14.0,51,0.00,,,0.00,VWS V14.01,2013-03-05 02:37:00,
2013-03-04 21:39:00,35.6,19.3,29.82,West,259,4.0,14.0,51,0.00,,,0.00,VWS V14.01,2013-03-05 02:39:00,
2013-03-04 21:43:00,35.5,19.2,29.82,WNW,289,2.0,14.0,51,0.00,,,0.00,VWS V14.01,2013-03-05 02:43:00,
2013-03-04 21:44:00,35.5,19.2,29.82,NW,313,12.0,14.0,51,0.00,,,0.00,VWS V14.01,2013-03-05 02:44:00,
2013-03-04 21:45:00,35.5,19.2,29.82,NNW,327,7.0,14.0,51,0.00,,,0.00,VWS V14.01,2013-03-05 02:45:00,
2013-03-04 21:47:00,35.5,19.6,29.82,WNW,284,5.0,14.0,52,0.00,,,0.00,VWS V14.01,2013-03-05 02:47:00,
2013-03-04 21:52:00,35.3,19.5,29.84,NW,304,8.0,14.0,52,0.00,,,0.00,VWS V14.01,2013-03-05 02:52:00,
2013-03-04 21:53:00,35.3,19.5,29.84,NW,325,0.0,14.0,52,0.00,,,0.00,VWS V14.01,2013-03-05 02:53:00,
2013-03-04 21:58:00,35.2,19.4,29.84,WNW,283,5.0,17.0,52,0.00,,,0.00,VWS V14.01,2013-03-05 02:58:00,
2013-03-04 21:59:00,35.3,19.5,29.84,NW,304,10.0,17.0,52,0.00,,,0.00,VWS V14.01,2013-03-05 02:59:00,
2013-03-04 22:03:00,35.3,19.5,29.83,NW,304,7.0,21.0,52,0.00,,,0.00,VWS V14.01,2013-03-05 03:03:00,
2013-03-04 22:04:00,35.3,19.5,29.83,West,274,6.0,16.0,52,0.00,,,0.00,VWS V14.01,2013-03-05 03:04:00,
2013-03-04 22:08:00,35.3,19.9,29.83,WNW,288,9.0,17.0,53,0.00,,,0.00,VWS V14.01,2013-03-05 03:08:00,
2013-03-04 22:09:00,35.3,19.9,29.83,WNW,285,9.0,17.0,53,0.00,,,0.00,VWS V14.01,2013-03-05 03:09:00,
2013-03-04 22:13:00,35.2,19.8,29.83,WNW,288,9.0,18.0,53,0.00,,,0.00,VWS V14.01,2013-03-05 03:13:00,
2013-03-04 22:14:00,35.2,19.8,29.83,WNW,289,13.0,18.0,53,0.00,,,0.00,VWS V14.01,2013-03-05 03:14:00,
2013-03-04 22:15:00,35.2,19.8,29.83,WNW,283,5.0,18.0,53,0.00,,,0.00,VWS V14.01,2013-03-05 03:15:00,
2013-03-04 22:20:00,35.0,19.6,29.82,NW,308,5.0,18.0,53,0.00,,,0.00,VWS V14.01,2013-03-05 03:20:00,
2013-03-04 22:21:00,35.0,19.6,29.82,NW,323,8.0,18.0,53,0.00,,,0.00,VWS V14.01,2013-03-05 03:21:00,
2013-03-04 22:23:00,35.0,20.0,29.82,NW,320,8.0,18.0,54,0.00,,,0.00,VWS V14.01,2013-03-05 03:23:00,
2013-03-04 22:26:00,34.9,20.0,29.82,West,273,4.0,18.0,54,0.00,,,0.00,VWS V14.01,2013-03-05 03:26:00,
2013-03-04 22:27:00,34.9,20.0,29.82,NW,322,9.0,18.0,54,0.00,,,0.00,VWS V14.01,2013-03-05 03:27:00,
2013-03-04 22:31:00,34.9,20.0,29.82,NW,309,9.0,18.0,54,0.00,,,0.00,VWS V14.01,2013-03-05 03:31:00,
2013-03-04 22:33:00,35.0,20.0,29.83,North,355,8.0,18.0,54,0.00,,,0.00,VWS V14.01,2013-03-05 03:33:00,
2013-03-04 22:34:00,35.0,20.0,29.83,NW,304,5.0,17.0,54,0.00,,,0.00,VWS V14.01,2013-03-05 03:34:00,
2013-03-04 22:36:00,35.0,20.0,29.83,NW,309,5.0,17.0,54,0.00,,,0.00,VWS V14.01,2013-03-05 03:36:00,
2013-03-04 22:38:00,35.0,20.0,29.83,WNW,294,15.0,18.0,54,0.00,,,0.00,VWS V14.01,2013-03-05 03:38:00,
2013-03-04 22:42:00,35.0,20.0,29.83,WNW,298,8.0,18.0,54,0.00,,,0.00,VWS V14.01,2013-03-05 03:42:00,
2013-03-04 22:47:00,34.9,20.0,29.83,NW,323,7.0,18.0,54,0.00,,,0.00,VWS V14.01,2013-03-05 03:47:00,
2013-03-04 22:51:00,34.9,20.0,29.84,NW,326,3.0,18.0,54,0.00,,,0.00,VWS V14.01,2013-03-05 03:51:00,
2013-03-04 22:54:00,34.9,20.0,29.84,NNW,334,9.0,18.0,54,0.00,,,0.00,VWS V14.01,2013-03-05 03:54:00,
2013-03-04 22:57:00,34.9,20.4,29.84,NW,315,6.0,18.0,55,0.00,,,0.00,VWS V14.01,2013-03-05 03:57:00,
2013-03-04 22:58:00,34.7,20.2,29.84,NW,315,8.0,18.0,55,0.00,,,0.00,VWS V14.01,2013-03-05 03:58:00,
2013-03-04 23:01:00,34.7,20.2,29.84,West,277,8.0,18.0,55,0.00,,,0.00,VWS V14.01,2013-03-05 04:01:00,
2013-03-04 23:03:00,34.7,20.2,29.84,NNW,328,13.0,21.0,55,0.00,,,0.00,VWS V14.01,2013-03-05 04:03:00,
2013-03-04 23:06:00,34.7,20.2,29.84,NW,315,9.0,15.0,55,0.00,,,0.00,VWS V14.01,2013-03-05 04:06:00,
2013-03-04 23:08:00,34.7,20.2,29.84,NW,317,3.0,17.0,55,0.00,,,0.00,VWS V14.01,2013-03-05 04:08:00,
2013-03-04 23:09:00,34.7,20.2,29.84,NW,323,7.0,17.0,55,0.00,,,0.00,VWS V14.01,2013-03-05 04:09:00,
2013-03-04 23:13:00,34.7,20.2,29.84,WNW,303,3.0,17.0,55,0.00,,,0.00,VWS V14.01,2013-03-05 04:13:00,
2013-03-04 23:17:00,34.6,20.1,29.84,NW,312,7.0,17.0,55,0.00,,,0.00,VWS V14.01,2013-03-05 04:17:00,
2013-03-04 23:20:00,34.6,20.1,29.85,WNW,302,4.0,17.0,55,0.00,,,0.00,VWS V14.01,2013-03-05 04:20:00,
2013-03-04 23:22:00,34.6,20.1,29.85,WNW,291,8.0,17.0,55,0.00,,,0.00,VWS V14.01,2013-03-05 04:22:00,
2013-03-04 23:23:00,34.6,20.1,29.85,NNW,331,4.0,17.0,55,0.00,,,0.00,VWS V14.01,2013-03-05 04:23:00,
2013-03-04 23:27:00,34.4,19.9,29.85,WNW,288,4.0,17.0,55,0.00,,,0.00,VWS V14.01,2013-03-05 04:27:00,
2013-03-04 23:28:00,34.4,19.9,29.85,WNW,288,7.0,17.0,55,0.00,,,0.00,VWS V14.01,2013-03-05 04:28:00,
2013-03-04 23:33:00,34.4,19.9,29.84,WNW,292,7.0,17.0,55,0.00,,,0.00,VWS V14.01,2013-03-05 04:33:00,
2013-03-04 23:34:00,34.4,19.9,29.84,WNW,290,10.0,10.0,55,0.00,,,0.00,VWS V14.01,2013-03-05 04:34:00,
2013-03-04 23:38:00,34.3,19.8,29.84,WNW,295,12.0,15.0,55,0.00,,,0.00,VWS V14.01,2013-03-05 04:38:00,
2013-03-04 23:40:00,34.3,19.8,29.84,NW,316,7.0,16.0,55,0.00,,,0.00,VWS V14.01,2013-03-05 04:40:00,
2013-03-04 23:43:00,34.3,20.2,29.84,WNW,301,13.0,16.0,56,0.00,,,0.00,VWS V14.01,2013-03-05 04:43:00,
2013-03-04 23:45:00,34.3,20.2,29.84,NW,317,9.0,16.0,56,0.00,,,0.00,VWS V14.01,2013-03-05 04:45:00,
2013-03-04 23:46:00,34.3,20.2,29.84,WNW,295,7.0,16.0,56,0.00,,,0.00,VWS V14.01,2013-03-05 04:46:00,
2013-03-04 23:50:00,34.1,20.1,29.84,West,277,5.0,16.0,56,0.00,,,0.00,VWS V14.01,2013-03-05 04:50:00,
2013-03-04 23:52:00,34.1,20.1,29.84,West,277,2.0,16.0,56,0.00,,,0.00,VWS V14.01,2013-03-05 04:52:00,
2013-03-04 23:54:00,34.0,20.0,29.84,WNW,289,7.0,16.0,56,0.00,,,0.00,VWS V14.01,2013-03-05 04:54:00,
2013-03-04 23:55:00,34.0,20.0,29.84,NW,321,5.0,16.0,56,0.00,,,0.00,VWS V14.01,2013-03-05 04:55:00,
2013-03-04 23:57:00,34.0,20.0,29.84,WNW,299,11.0,16.0,56,0.00,,,0.00,VWS V14.01,2013-03-05 04:57:00,